<?xml version="1.0" encoding="utf-8"?>
<gpx xmlns:xsi="http://www.w3.org/2001/XMLSchema-instance" xmlns:xsd="http://www.w3.org/2001/XMLSchema" version="1.1" creator="Shapelink.com" xmlns="http://www.topografix.com/GPX/1/1" xmlns:gpxtpx="http://www.garmin.com/xmlschemas/TrackPointExtension/v1">
  <metadata>
    <name>Nordic Walking 12.10 km, 2018-07-06</name>
    <desc></desc>
    <author><name>Veronica Dahlgren</name></author> 
    <time>1970-01-01T01:00:00Z</time>
  </metadata>
  <trk>
    <name>Nordic Walking 12.10 km, 2018-07-06</name>
    <trkseg>
      <trkpt lat="58.999838" lon="16.006601">
        <ele>65.8571</ele>
        <time>1970-01-01T01:00:00Z</time>
      </trkpt>
      <trkpt lat="58.999843" lon="16.006443">
        <ele>66.25</ele>
        <time>1970-01-01T01:00:00Z</time>
      </trkpt>
      <trkpt lat="58.999805" lon="16.006298">
        <ele>66.6667</ele>
        <time>1970-01-01T01:00:00Z</time>
      </trkpt>
      <trkpt lat="58.999739" lon="16.006188">
        <ele>67.1</ele>
        <time>1970-01-01T01:00:00Z</time>
      </trkpt>
      <trkpt lat="58.999669" lon="16.006104">
        <ele>67.3636</ele>
        <time>1970-01-01T01:00:00Z</time>
      </trkpt>
      <trkpt lat="58.999599" lon="16.006008">
        <ele>67.8182</ele>
        <time>1970-01-01T01:00:00Z</time>
      </trkpt>
      <trkpt lat="58.999508" lon="16.006068">
        <ele>68.3636</ele>
        <time>1970-01-01T01:00:00Z</time>
      </trkpt>
      <trkpt lat="58.99945" lon="16.006215">
        <ele>68.9091</ele>
        <time>1970-01-01T01:00:00Z</time>
      </trkpt>
      <trkpt lat="58.999409" lon="16.006372">
        <ele>69.4545</ele>
        <time>1970-01-01T01:00:00Z</time>
      </trkpt>
      <trkpt lat="58.999385" lon="16.006528">
        <ele>69.9091</ele>
        <time>1970-01-01T01:00:00Z</time>
      </trkpt>
      <trkpt lat="58.999347" lon="16.006669">
        <ele>70.3636</ele>
        <time>1970-01-01T01:00:00Z</time>
      </trkpt>
      <trkpt lat="58.999307" lon="16.006818">
        <ele>70.7273</ele>
        <time>1970-01-01T01:00:00Z</time>
      </trkpt>
      <trkpt lat="58.999264" lon="16.006986">
        <ele>71</ele>
        <time>1970-01-01T01:00:00Z</time>
      </trkpt>
      <trkpt lat="58.99923" lon="16.007145">
        <ele>71.1818</ele>
        <time>1970-01-01T01:00:00Z</time>
      </trkpt>
      <trkpt lat="58.9992" lon="16.007327">
        <ele>71.3636</ele>
        <time>1970-01-01T01:00:00Z</time>
      </trkpt>
      <trkpt lat="58.999174" lon="16.007479">
        <ele>71.6364</ele>
        <time>1970-01-01T01:00:00Z</time>
      </trkpt>
      <trkpt lat="58.999142" lon="16.007648">
        <ele>71.8182</ele>
        <time>1970-01-01T01:00:00Z</time>
      </trkpt>
      <trkpt lat="58.999095" lon="16.007798">
        <ele>71.9091</ele>
        <time>1970-01-01T01:00:00Z</time>
      </trkpt>
      <trkpt lat="58.999032" lon="16.007931">
        <ele>71.9091</ele>
        <time>1970-01-01T01:00:00Z</time>
      </trkpt>
      <trkpt lat="58.998961" lon="16.008021">
        <ele>71.9091</ele>
        <time>1970-01-01T01:00:00Z</time>
      </trkpt>
      <trkpt lat="58.998891" lon="16.008122">
        <ele>71.8182</ele>
        <time>1970-01-01T01:00:00Z</time>
      </trkpt>
      <trkpt lat="58.998811" lon="16.008171">
        <ele>71.6364</ele>
        <time>1970-01-01T01:00:00Z</time>
      </trkpt>
      <trkpt lat="58.998723" lon="16.008234">
        <ele>71.4545</ele>
        <time>1970-01-01T01:00:00Z</time>
      </trkpt>
      <trkpt lat="58.998648" lon="16.008318">
        <ele>71.2727</ele>
        <time>1970-01-01T01:00:00Z</time>
      </trkpt>
      <trkpt lat="58.998575" lon="16.008425">
        <ele>71</ele>
        <time>1970-01-01T01:00:00Z</time>
      </trkpt>
      <trkpt lat="58.998508" lon="16.008535">
        <ele>70.6364</ele>
        <time>1970-01-01T01:00:00Z</time>
      </trkpt>
      <trkpt lat="58.998447" lon="16.008655">
        <ele>70.1818</ele>
        <time>1970-01-01T01:00:00Z</time>
      </trkpt>
      <trkpt lat="58.998377" lon="16.008775">
        <ele>69.8182</ele>
        <time>1970-01-01T01:00:00Z</time>
      </trkpt>
      <trkpt lat="58.998301" lon="16.008881">
        <ele>69.4545</ele>
        <time>1970-01-01T01:00:00Z</time>
      </trkpt>
      <trkpt lat="58.998243" lon="16.009013">
        <ele>69.0909</ele>
        <time>1970-01-01T01:00:00Z</time>
      </trkpt>
      <trkpt lat="58.998186" lon="16.009146">
        <ele>68.7273</ele>
        <time>1970-01-01T01:00:00Z</time>
      </trkpt>
      <trkpt lat="58.998123" lon="16.009247">
        <ele>68.4545</ele>
        <time>1970-01-01T01:00:00Z</time>
      </trkpt>
      <trkpt lat="58.998037" lon="16.009282">
        <ele>68.1818</ele>
        <time>1970-01-01T01:00:00Z</time>
      </trkpt>
      <trkpt lat="58.997979" lon="16.009164">
        <ele>67.8182</ele>
        <time>1970-01-01T01:00:00Z</time>
      </trkpt>
      <trkpt lat="58.997893" lon="16.009211">
        <ele>67.4545</ele>
        <time>1970-01-01T01:00:00Z</time>
      </trkpt>
      <trkpt lat="58.997818" lon="16.009296">
        <ele>67.1818</ele>
        <time>1970-01-01T01:00:00Z</time>
      </trkpt>
      <trkpt lat="58.997734" lon="16.009247">
        <ele>66.9091</ele>
        <time>1970-01-01T01:00:00Z</time>
      </trkpt>
      <trkpt lat="58.997652" lon="16.009318">
        <ele>66.7273</ele>
        <time>1970-01-01T01:00:00Z</time>
      </trkpt>
      <trkpt lat="58.997581" lon="16.009419">
        <ele>66.5455</ele>
        <time>1970-01-01T01:00:00Z</time>
      </trkpt>
      <trkpt lat="58.9975" lon="16.009507">
        <ele>66.3636</ele>
        <time>1970-01-01T01:00:00Z</time>
      </trkpt>
      <trkpt lat="58.997418" lon="16.009534">
        <ele>66.2727</ele>
        <time>1970-01-01T01:00:00Z</time>
      </trkpt>
      <trkpt lat="58.997341" lon="16.009629">
        <ele>66.1818</ele>
        <time>1970-01-01T01:00:00Z</time>
      </trkpt>
      <trkpt lat="58.997289" lon="16.009758">
        <ele>66.0909</ele>
        <time>1970-01-01T01:00:00Z</time>
      </trkpt>
      <trkpt lat="58.997214" lon="16.009861">
        <ele>66</ele>
        <time>1970-01-01T01:00:00Z</time>
      </trkpt>
      <trkpt lat="58.997125" lon="16.009858">
        <ele>66.0909</ele>
        <time>1970-01-01T01:00:00Z</time>
      </trkpt>
      <trkpt lat="58.997048" lon="16.009942">
        <ele>66.1818</ele>
        <time>1970-01-01T01:00:00Z</time>
      </trkpt>
      <trkpt lat="58.996967" lon="16.009997">
        <ele>66.3636</ele>
        <time>1970-01-01T01:00:00Z</time>
      </trkpt>
      <trkpt lat="58.996882" lon="16.010052">
        <ele>66.5455</ele>
        <time>1970-01-01T01:00:00Z</time>
      </trkpt>
      <trkpt lat="58.996808" lon="16.01014">
        <ele>66.8182</ele>
        <time>1970-01-01T01:00:00Z</time>
      </trkpt>
      <trkpt lat="58.996743" lon="16.010242">
        <ele>67.0909</ele>
        <time>1970-01-01T01:00:00Z</time>
      </trkpt>
      <trkpt lat="58.996694" lon="16.010389">
        <ele>67.3636</ele>
        <time>1970-01-01T01:00:00Z</time>
      </trkpt>
      <trkpt lat="58.996603" lon="16.010433">
        <ele>67.6364</ele>
        <time>1970-01-01T01:00:00Z</time>
      </trkpt>
      <trkpt lat="58.996525" lon="16.010368">
        <ele>68</ele>
        <time>1970-01-01T01:00:00Z</time>
      </trkpt>
      <trkpt lat="58.996435" lon="16.010323">
        <ele>68.3636</ele>
        <time>1970-01-01T01:00:00Z</time>
      </trkpt>
      <trkpt lat="58.996379" lon="16.010201">
        <ele>68.8182</ele>
        <time>1970-01-01T01:00:00Z</time>
      </trkpt>
      <trkpt lat="58.996333" lon="16.010047">
        <ele>69.1818</ele>
        <time>1970-01-01T01:00:00Z</time>
      </trkpt>
      <trkpt lat="58.996285" lon="16.009889">
        <ele>69.6364</ele>
        <time>1970-01-01T01:00:00Z</time>
      </trkpt>
      <trkpt lat="58.996252" lon="16.009745">
        <ele>70</ele>
        <time>1970-01-01T01:00:00Z</time>
      </trkpt>
      <trkpt lat="58.996187" lon="16.009607">
        <ele>70.4545</ele>
        <time>1970-01-01T01:00:00Z</time>
      </trkpt>
      <trkpt lat="58.996136" lon="16.009462">
        <ele>70.8182</ele>
        <time>1970-01-01T01:00:00Z</time>
      </trkpt>
      <trkpt lat="58.996064" lon="16.009375">
        <ele>71.1818</ele>
        <time>1970-01-01T01:00:00Z</time>
      </trkpt>
      <trkpt lat="58.995986" lon="16.009277">
        <ele>71.5455</ele>
        <time>1970-01-01T01:00:00Z</time>
      </trkpt>
      <trkpt lat="58.995914" lon="16.009193">
        <ele>71.9091</ele>
        <time>1970-01-01T01:00:00Z</time>
      </trkpt>
      <trkpt lat="58.995847" lon="16.009096">
        <ele>72.1818</ele>
        <time>1970-01-01T01:00:00Z</time>
      </trkpt>
      <trkpt lat="58.995777" lon="16.008987">
        <ele>72.4545</ele>
        <time>1970-01-01T01:00:00Z</time>
      </trkpt>
      <trkpt lat="58.995702" lon="16.008902">
        <ele>72.6364</ele>
        <time>1970-01-01T01:00:00Z</time>
      </trkpt>
      <trkpt lat="58.995636" lon="16.008777">
        <ele>72.8182</ele>
        <time>1970-01-01T01:00:00Z</time>
      </trkpt>
      <trkpt lat="58.995566" lon="16.00869">
        <ele>72.9091</ele>
        <time>1970-01-01T01:00:00Z</time>
      </trkpt>
      <trkpt lat="58.995485" lon="16.008579">
        <ele>72.9091</ele>
        <time>1970-01-01T01:00:00Z</time>
      </trkpt>
      <trkpt lat="58.995412" lon="16.008463">
        <ele>72.8182</ele>
        <time>1970-01-01T01:00:00Z</time>
      </trkpt>
      <trkpt lat="58.995354" lon="16.00835">
        <ele>72.6364</ele>
        <time>1970-01-01T01:00:00Z</time>
      </trkpt>
      <trkpt lat="58.995282" lon="16.008236">
        <ele>72.4545</ele>
        <time>1970-01-01T01:00:00Z</time>
      </trkpt>
      <trkpt lat="58.995212" lon="16.008131">
        <ele>72.2727</ele>
        <time>1970-01-01T01:00:00Z</time>
      </trkpt>
      <trkpt lat="58.995141" lon="16.008035">
        <ele>72</ele>
        <time>1970-01-01T01:00:00Z</time>
      </trkpt>
      <trkpt lat="58.99506" lon="16.007971">
        <ele>71.7273</ele>
        <time>1970-01-01T01:00:00Z</time>
      </trkpt>
      <trkpt lat="58.99497" lon="16.007912">
        <ele>71.4545</ele>
        <time>1970-01-01T01:00:00Z</time>
      </trkpt>
      <trkpt lat="58.994884" lon="16.007878">
        <ele>71.1818</ele>
        <time>1970-01-01T01:00:00Z</time>
      </trkpt>
      <trkpt lat="58.9948" lon="16.007905">
        <ele>70.9091</ele>
        <time>1970-01-01T01:00:00Z</time>
      </trkpt>
      <trkpt lat="58.994714" lon="16.007885">
        <ele>70.7273</ele>
        <time>1970-01-01T01:00:00Z</time>
      </trkpt>
      <trkpt lat="58.99463" lon="16.007871">
        <ele>70.7273</ele>
        <time>1970-01-01T01:00:00Z</time>
      </trkpt>
      <trkpt lat="58.994547" lon="16.007828">
        <ele>70.7273</ele>
        <time>1970-01-01T01:00:00Z</time>
      </trkpt>
      <trkpt lat="58.994461" lon="16.007771">
        <ele>70.9091</ele>
        <time>1970-01-01T01:00:00Z</time>
      </trkpt>
      <trkpt lat="58.994389" lon="16.007673">
        <ele>71.2727</ele>
        <time>1970-01-01T01:00:00Z</time>
      </trkpt>
      <trkpt lat="58.994314" lon="16.007575">
        <ele>71.6364</ele>
        <time>1970-01-01T01:00:00Z</time>
      </trkpt>
      <trkpt lat="58.994232" lon="16.007475">
        <ele>72.0909</ele>
        <time>1970-01-01T01:00:00Z</time>
      </trkpt>
      <trkpt lat="58.994155" lon="16.007383">
        <ele>72.6364</ele>
        <time>1970-01-01T01:00:00Z</time>
      </trkpt>
      <trkpt lat="58.994084" lon="16.007295">
        <ele>73.2727</ele>
        <time>1970-01-01T01:00:00Z</time>
      </trkpt>
      <trkpt lat="58.99401" lon="16.007213">
        <ele>73.9091</ele>
        <time>1970-01-01T01:00:00Z</time>
      </trkpt>
      <trkpt lat="58.993942" lon="16.007119">
        <ele>74.5455</ele>
        <time>1970-01-01T01:00:00Z</time>
      </trkpt>
      <trkpt lat="58.993887" lon="16.006995">
        <ele>75.1818</ele>
        <time>1970-01-01T01:00:00Z</time>
      </trkpt>
      <trkpt lat="58.993838" lon="16.006853">
        <ele>75.7273</ele>
        <time>1970-01-01T01:00:00Z</time>
      </trkpt>
      <trkpt lat="58.993793" lon="16.006721">
        <ele>76.1818</ele>
        <time>1970-01-01T01:00:00Z</time>
      </trkpt>
      <trkpt lat="58.993762" lon="16.006565">
        <ele>76.6364</ele>
        <time>1970-01-01T01:00:00Z</time>
      </trkpt>
      <trkpt lat="58.993722" lon="16.006428">
        <ele>76.8182</ele>
        <time>1970-01-01T01:00:00Z</time>
      </trkpt>
      <trkpt lat="58.993703" lon="16.00627">
        <ele>77</ele>
        <time>1970-01-01T01:00:00Z</time>
      </trkpt>
      <trkpt lat="58.993691" lon="16.006086">
        <ele>77.1818</ele>
        <time>1970-01-01T01:00:00Z</time>
      </trkpt>
      <trkpt lat="58.993687" lon="16.005929">
        <ele>77.3636</ele>
        <time>1970-01-01T01:00:00Z</time>
      </trkpt>
      <trkpt lat="58.993644" lon="16.005754">
        <ele>77.4545</ele>
        <time>1970-01-01T01:00:00Z</time>
      </trkpt>
      <trkpt lat="58.993637" lon="16.005564">
        <ele>77.5455</ele>
        <time>1970-01-01T01:00:00Z</time>
      </trkpt>
      <trkpt lat="58.993626" lon="16.005407">
        <ele>77.6364</ele>
        <time>1970-01-01T01:00:00Z</time>
      </trkpt>
      <trkpt lat="58.993599" lon="16.005244">
        <ele>77.7273</ele>
        <time>1970-01-01T01:00:00Z</time>
      </trkpt>
      <trkpt lat="58.993557" lon="16.005096">
        <ele>77.8182</ele>
        <time>1970-01-01T01:00:00Z</time>
      </trkpt>
      <trkpt lat="58.993506" lon="16.004951">
        <ele>77.9091</ele>
        <time>1970-01-01T01:00:00Z</time>
      </trkpt>
      <trkpt lat="58.993457" lon="16.00481">
        <ele>77.9091</ele>
        <time>1970-01-01T01:00:00Z</time>
      </trkpt>
      <trkpt lat="58.993411" lon="16.004661">
        <ele>77.9091</ele>
        <time>1970-01-01T01:00:00Z</time>
      </trkpt>
      <trkpt lat="58.993367" lon="16.004524">
        <ele>77.8182</ele>
        <time>1970-01-01T01:00:00Z</time>
      </trkpt>
      <trkpt lat="58.993311" lon="16.004385">
        <ele>77.7273</ele>
        <time>1970-01-01T01:00:00Z</time>
      </trkpt>
      <trkpt lat="58.993285" lon="16.004216">
        <ele>77.5455</ele>
        <time>1970-01-01T01:00:00Z</time>
      </trkpt>
      <trkpt lat="58.993261" lon="16.004048">
        <ele>77.2727</ele>
        <time>1970-01-01T01:00:00Z</time>
      </trkpt>
      <trkpt lat="58.993258" lon="16.003888">
        <ele>76.9091</ele>
        <time>1970-01-01T01:00:00Z</time>
      </trkpt>
      <trkpt lat="58.993236" lon="16.003725">
        <ele>76.5455</ele>
        <time>1970-01-01T01:00:00Z</time>
      </trkpt>
      <trkpt lat="58.993211" lon="16.003567">
        <ele>76.0909</ele>
        <time>1970-01-01T01:00:00Z</time>
      </trkpt>
      <trkpt lat="58.993152" lon="16.003449">
        <ele>75.6364</ele>
        <time>1970-01-01T01:00:00Z</time>
      </trkpt>
      <trkpt lat="58.993126" lon="16.003298">
        <ele>75.3636</ele>
        <time>1970-01-01T01:00:00Z</time>
      </trkpt>
      <trkpt lat="58.993146" lon="16.003142">
        <ele>75.0909</ele>
        <time>1970-01-01T01:00:00Z</time>
      </trkpt>
      <trkpt lat="58.993149" lon="16.002982">
        <ele>75</ele>
        <time>1970-01-01T01:00:00Z</time>
      </trkpt>
      <trkpt lat="58.993127" lon="16.002828">
        <ele>75.0909</ele>
        <time>1970-01-01T01:00:00Z</time>
      </trkpt>
      <trkpt lat="58.993089" lon="16.002673">
        <ele>75.2727</ele>
        <time>1970-01-01T01:00:00Z</time>
      </trkpt>
      <trkpt lat="58.993102" lon="16.002502">
        <ele>75.4545</ele>
        <time>1970-01-01T01:00:00Z</time>
      </trkpt>
      <trkpt lat="58.993145" lon="16.002354">
        <ele>75.8182</ele>
        <time>1970-01-01T01:00:00Z</time>
      </trkpt>
      <trkpt lat="58.993085" lon="16.002204">
        <ele>76.2727</ele>
        <time>1970-01-01T01:00:00Z</time>
      </trkpt>
      <trkpt lat="58.993027" lon="16.00209">
        <ele>76.8182</ele>
        <time>1970-01-01T01:00:00Z</time>
      </trkpt>
      <trkpt lat="58.992963" lon="16.001953">
        <ele>77.4545</ele>
        <time>1970-01-01T01:00:00Z</time>
      </trkpt>
      <trkpt lat="58.992902" lon="16.001817">
        <ele>78.1818</ele>
        <time>1970-01-01T01:00:00Z</time>
      </trkpt>
      <trkpt lat="58.992832" lon="16.001704">
        <ele>78.9091</ele>
        <time>1970-01-01T01:00:00Z</time>
      </trkpt>
      <trkpt lat="58.992748" lon="16.001623">
        <ele>79.6364</ele>
        <time>1970-01-01T01:00:00Z</time>
      </trkpt>
      <trkpt lat="58.99267" lon="16.001563">
        <ele>80.2727</ele>
        <time>1970-01-01T01:00:00Z</time>
      </trkpt>
      <trkpt lat="58.99259" lon="16.001491">
        <ele>80.8182</ele>
        <time>1970-01-01T01:00:00Z</time>
      </trkpt>
      <trkpt lat="58.992514" lon="16.001409">
        <ele>81.1818</ele>
        <time>1970-01-01T01:00:00Z</time>
      </trkpt>
      <trkpt lat="58.992449" lon="16.001309">
        <ele>81.5455</ele>
        <time>1970-01-01T01:00:00Z</time>
      </trkpt>
      <trkpt lat="58.992369" lon="16.001247">
        <ele>81.7273</ele>
        <time>1970-01-01T01:00:00Z</time>
      </trkpt>
      <trkpt lat="58.992305" lon="16.001144">
        <ele>81.8182</ele>
        <time>1970-01-01T01:00:00Z</time>
      </trkpt>
      <trkpt lat="58.992219" lon="16.00112">
        <ele>81.8182</ele>
        <time>1970-01-01T01:00:00Z</time>
      </trkpt>
      <trkpt lat="58.992135" lon="16.001111">
        <ele>81.7273</ele>
        <time>1970-01-01T01:00:00Z</time>
      </trkpt>
      <trkpt lat="58.992057" lon="16.001166">
        <ele>81.4545</ele>
        <time>1970-01-01T01:00:00Z</time>
      </trkpt>
      <trkpt lat="58.991973" lon="16.001201">
        <ele>81.0909</ele>
        <time>1970-01-01T01:00:00Z</time>
      </trkpt>
      <trkpt lat="58.991883" lon="16.001199">
        <ele>80.7273</ele>
        <time>1970-01-01T01:00:00Z</time>
      </trkpt>
      <trkpt lat="58.991798" lon="16.001202">
        <ele>80.3636</ele>
        <time>1970-01-01T01:00:00Z</time>
      </trkpt>
      <trkpt lat="58.991712" lon="16.001232">
        <ele>80</ele>
        <time>1970-01-01T01:00:00Z</time>
      </trkpt>
      <trkpt lat="58.991613" lon="16.00124">
        <ele>79.7273</ele>
        <time>1970-01-01T01:00:00Z</time>
      </trkpt>
      <trkpt lat="58.991527" lon="16.001195">
        <ele>79.4545</ele>
        <time>1970-01-01T01:00:00Z</time>
      </trkpt>
      <trkpt lat="58.991449" lon="16.001129">
        <ele>79.2727</ele>
        <time>1970-01-01T01:00:00Z</time>
      </trkpt>
      <trkpt lat="58.991369" lon="16.00106">
        <ele>79.1818</ele>
        <time>1970-01-01T01:00:00Z</time>
      </trkpt>
      <trkpt lat="58.991285" lon="16.000976">
        <ele>79.0909</ele>
        <time>1970-01-01T01:00:00Z</time>
      </trkpt>
      <trkpt lat="58.991203" lon="16.000933">
        <ele>79</ele>
        <time>1970-01-01T01:00:00Z</time>
      </trkpt>
      <trkpt lat="58.991132" lon="16.000852">
        <ele>79.0909</ele>
        <time>1970-01-01T01:00:00Z</time>
      </trkpt>
      <trkpt lat="58.991043" lon="16.000806">
        <ele>79.0909</ele>
        <time>1970-01-01T01:00:00Z</time>
      </trkpt>
      <trkpt lat="58.990952" lon="16.000788">
        <ele>79.0909</ele>
        <time>1970-01-01T01:00:00Z</time>
      </trkpt>
      <trkpt lat="58.990861" lon="16.000786">
        <ele>79.0909</ele>
        <time>1970-01-01T01:00:00Z</time>
      </trkpt>
      <trkpt lat="58.990771" lon="16.000767">
        <ele>79.0909</ele>
        <time>1970-01-01T01:00:00Z</time>
      </trkpt>
      <trkpt lat="58.990693" lon="16.000832">
        <ele>79.0909</ele>
        <time>1970-01-01T01:00:00Z</time>
      </trkpt>
      <trkpt lat="58.990626" lon="16.000944">
        <ele>79.0909</ele>
        <time>1970-01-01T01:00:00Z</time>
      </trkpt>
      <trkpt lat="58.990557" lon="16.001053">
        <ele>79.1818</ele>
        <time>1970-01-01T01:00:00Z</time>
      </trkpt>
      <trkpt lat="58.9905" lon="16.001179">
        <ele>79.1818</ele>
        <time>1970-01-01T01:00:00Z</time>
      </trkpt>
      <trkpt lat="58.990453" lon="16.001321">
        <ele>79.1818</ele>
        <time>1970-01-01T01:00:00Z</time>
      </trkpt>
      <trkpt lat="58.99041" lon="16.001462">
        <ele>79.1818</ele>
        <time>1970-01-01T01:00:00Z</time>
      </trkpt>
      <trkpt lat="58.990356" lon="16.00161">
        <ele>79.0909</ele>
        <time>1970-01-01T01:00:00Z</time>
      </trkpt>
      <trkpt lat="58.990296" lon="16.00174">
        <ele>79.0909</ele>
        <time>1970-01-01T01:00:00Z</time>
      </trkpt>
      <trkpt lat="58.990251" lon="16.001872">
        <ele>79.0909</ele>
        <time>1970-01-01T01:00:00Z</time>
      </trkpt>
      <trkpt lat="58.990192" lon="16.001993">
        <ele>79</ele>
        <time>1970-01-01T01:00:00Z</time>
      </trkpt>
      <trkpt lat="58.990121" lon="16.002068">
        <ele>78.9091</ele>
        <time>1970-01-01T01:00:00Z</time>
      </trkpt>
      <trkpt lat="58.990041" lon="16.002106">
        <ele>78.9091</ele>
        <time>1970-01-01T01:00:00Z</time>
      </trkpt>
      <trkpt lat="58.989971" lon="16.002227">
        <ele>78.9091</ele>
        <time>1970-01-01T01:00:00Z</time>
      </trkpt>
      <trkpt lat="58.989915" lon="16.002358">
        <ele>78.8182</ele>
        <time>1970-01-01T01:00:00Z</time>
      </trkpt>
      <trkpt lat="58.989858" lon="16.002492">
        <ele>78.7273</ele>
        <time>1970-01-01T01:00:00Z</time>
      </trkpt>
      <trkpt lat="58.98978" lon="16.002588">
        <ele>78.6364</ele>
        <time>1970-01-01T01:00:00Z</time>
      </trkpt>
      <trkpt lat="58.989714" lon="16.002688">
        <ele>78.5455</ele>
        <time>1970-01-01T01:00:00Z</time>
      </trkpt>
      <trkpt lat="58.989654" lon="16.002806">
        <ele>78.4545</ele>
        <time>1970-01-01T01:00:00Z</time>
      </trkpt>
      <trkpt lat="58.9896" lon="16.002932">
        <ele>78.3636</ele>
        <time>1970-01-01T01:00:00Z</time>
      </trkpt>
      <trkpt lat="58.989565" lon="16.003088">
        <ele>78.1818</ele>
        <time>1970-01-01T01:00:00Z</time>
      </trkpt>
      <trkpt lat="58.989537" lon="16.003249">
        <ele>78.0909</ele>
        <time>1970-01-01T01:00:00Z</time>
      </trkpt>
      <trkpt lat="58.989507" lon="16.003426">
        <ele>77.9091</ele>
        <time>1970-01-01T01:00:00Z</time>
      </trkpt>
      <trkpt lat="58.989474" lon="16.003596">
        <ele>77.6364</ele>
        <time>1970-01-01T01:00:00Z</time>
      </trkpt>
      <trkpt lat="58.989417" lon="16.003715">
        <ele>77.3636</ele>
        <time>1970-01-01T01:00:00Z</time>
      </trkpt>
      <trkpt lat="58.98934" lon="16.003766">
        <ele>77.1818</ele>
        <time>1970-01-01T01:00:00Z</time>
      </trkpt>
      <trkpt lat="58.989284" lon="16.003903">
        <ele>77.1818</ele>
        <time>1970-01-01T01:00:00Z</time>
      </trkpt>
      <trkpt lat="58.98923" lon="16.004024">
        <ele>77.1818</ele>
        <time>1970-01-01T01:00:00Z</time>
      </trkpt>
      <trkpt lat="58.989151" lon="16.004079">
        <ele>77.2727</ele>
        <time>1970-01-01T01:00:00Z</time>
      </trkpt>
      <trkpt lat="58.989108" lon="16.004224">
        <ele>77.4545</ele>
        <time>1970-01-01T01:00:00Z</time>
      </trkpt>
      <trkpt lat="58.989085" lon="16.004379">
        <ele>77.6364</ele>
        <time>1970-01-01T01:00:00Z</time>
      </trkpt>
      <trkpt lat="58.989038" lon="16.004524">
        <ele>77.9091</ele>
        <time>1970-01-01T01:00:00Z</time>
      </trkpt>
      <trkpt lat="58.988991" lon="16.004663">
        <ele>78.1818</ele>
        <time>1970-01-01T01:00:00Z</time>
      </trkpt>
      <trkpt lat="58.988943" lon="16.004796">
        <ele>78.5455</ele>
        <time>1970-01-01T01:00:00Z</time>
      </trkpt>
      <trkpt lat="58.988868" lon="16.004909">
        <ele>78.9091</ele>
        <time>1970-01-01T01:00:00Z</time>
      </trkpt>
      <trkpt lat="58.988803" lon="16.005008">
        <ele>79.2727</ele>
        <time>1970-01-01T01:00:00Z</time>
      </trkpt>
      <trkpt lat="58.988722" lon="16.005112">
        <ele>79.5455</ele>
        <time>1970-01-01T01:00:00Z</time>
      </trkpt>
      <trkpt lat="58.988652" lon="16.005208">
        <ele>79.7273</ele>
        <time>1970-01-01T01:00:00Z</time>
      </trkpt>
      <trkpt lat="58.988589" lon="16.005331">
        <ele>80</ele>
        <time>1970-01-01T01:00:00Z</time>
      </trkpt>
      <trkpt lat="58.988513" lon="16.005461">
        <ele>80.1818</ele>
        <time>1970-01-01T01:00:00Z</time>
      </trkpt>
      <trkpt lat="58.988457" lon="16.005575">
        <ele>80.1818</ele>
        <time>1970-01-01T01:00:00Z</time>
      </trkpt>
      <trkpt lat="58.988401" lon="16.005722">
        <ele>80.1818</ele>
        <time>1970-01-01T01:00:00Z</time>
      </trkpt>
      <trkpt lat="58.988348" lon="16.005864">
        <ele>80.1818</ele>
        <time>1970-01-01T01:00:00Z</time>
      </trkpt>
      <trkpt lat="58.988303" lon="16.006021">
        <ele>80.1818</ele>
        <time>1970-01-01T01:00:00Z</time>
      </trkpt>
      <trkpt lat="58.988255" lon="16.006157">
        <ele>80.1818</ele>
        <time>1970-01-01T01:00:00Z</time>
      </trkpt>
      <trkpt lat="58.988193" lon="16.006273">
        <ele>80.1818</ele>
        <time>1970-01-01T01:00:00Z</time>
      </trkpt>
      <trkpt lat="58.988137" lon="16.006415">
        <ele>80.0909</ele>
        <time>1970-01-01T01:00:00Z</time>
      </trkpt>
      <trkpt lat="58.988079" lon="16.006527">
        <ele>80</ele>
        <time>1970-01-01T01:00:00Z</time>
      </trkpt>
      <trkpt lat="58.988046" lon="16.006671">
        <ele>79.9091</ele>
        <time>1970-01-01T01:00:00Z</time>
      </trkpt>
      <trkpt lat="58.987994" lon="16.006827">
        <ele>79.6364</ele>
        <time>1970-01-01T01:00:00Z</time>
      </trkpt>
      <trkpt lat="58.987952" lon="16.006977">
        <ele>79.2727</ele>
        <time>1970-01-01T01:00:00Z</time>
      </trkpt>
      <trkpt lat="58.9879" lon="16.007119">
        <ele>79</ele>
        <time>1970-01-01T01:00:00Z</time>
      </trkpt>
      <trkpt lat="58.987816" lon="16.00719">
        <ele>78.6364</ele>
        <time>1970-01-01T01:00:00Z</time>
      </trkpt>
      <trkpt lat="58.987721" lon="16.007199">
        <ele>78.2727</ele>
        <time>1970-01-01T01:00:00Z</time>
      </trkpt>
      <trkpt lat="58.98763" lon="16.007196">
        <ele>77.8182</ele>
        <time>1970-01-01T01:00:00Z</time>
      </trkpt>
      <trkpt lat="58.987546" lon="16.007233">
        <ele>77.3636</ele>
        <time>1970-01-01T01:00:00Z</time>
      </trkpt>
      <trkpt lat="58.987458" lon="16.007279">
        <ele>76.9091</ele>
        <time>1970-01-01T01:00:00Z</time>
      </trkpt>
      <trkpt lat="58.987371" lon="16.007316">
        <ele>76.5455</ele>
        <time>1970-01-01T01:00:00Z</time>
      </trkpt>
      <trkpt lat="58.987291" lon="16.007386">
        <ele>76.1818</ele>
        <time>1970-01-01T01:00:00Z</time>
      </trkpt>
      <trkpt lat="58.987215" lon="16.007473">
        <ele>75.8182</ele>
        <time>1970-01-01T01:00:00Z</time>
      </trkpt>
      <trkpt lat="58.987139" lon="16.007584">
        <ele>75.5455</ele>
        <time>1970-01-01T01:00:00Z</time>
      </trkpt>
      <trkpt lat="58.987074" lon="16.00768">
        <ele>75.3636</ele>
        <time>1970-01-01T01:00:00Z</time>
      </trkpt>
      <trkpt lat="58.987002" lon="16.007758">
        <ele>75.0909</ele>
        <time>1970-01-01T01:00:00Z</time>
      </trkpt>
      <trkpt lat="58.986929" lon="16.007848">
        <ele>75</ele>
        <time>1970-01-01T01:00:00Z</time>
      </trkpt>
      <trkpt lat="58.986857" lon="16.007958">
        <ele>74.9091</ele>
        <time>1970-01-01T01:00:00Z</time>
      </trkpt>
      <trkpt lat="58.986791" lon="16.008065">
        <ele>74.9091</ele>
        <time>1970-01-01T01:00:00Z</time>
      </trkpt>
      <trkpt lat="58.986717" lon="16.00816">
        <ele>74.9091</ele>
        <time>1970-01-01T01:00:00Z</time>
      </trkpt>
      <trkpt lat="58.986645" lon="16.008276">
        <ele>74.9091</ele>
        <time>1970-01-01T01:00:00Z</time>
      </trkpt>
      <trkpt lat="58.98658" lon="16.008374">
        <ele>74.9091</ele>
        <time>1970-01-01T01:00:00Z</time>
      </trkpt>
      <trkpt lat="58.986504" lon="16.008459">
        <ele>74.9091</ele>
        <time>1970-01-01T01:00:00Z</time>
      </trkpt>
      <trkpt lat="58.98643" lon="16.008553">
        <ele>74.9091</ele>
        <time>1970-01-01T01:00:00Z</time>
      </trkpt>
      <trkpt lat="58.98635" lon="16.008631">
        <ele>75</ele>
        <time>1970-01-01T01:00:00Z</time>
      </trkpt>
      <trkpt lat="58.98627" lon="16.008709">
        <ele>75.0909</ele>
        <time>1970-01-01T01:00:00Z</time>
      </trkpt>
      <trkpt lat="58.986184" lon="16.00873">
        <ele>75.2727</ele>
        <time>1970-01-01T01:00:00Z</time>
      </trkpt>
      <trkpt lat="58.986105" lon="16.008784">
        <ele>75.3636</ele>
        <time>1970-01-01T01:00:00Z</time>
      </trkpt>
      <trkpt lat="58.986027" lon="16.008875">
        <ele>75.3636</ele>
        <time>1970-01-01T01:00:00Z</time>
      </trkpt>
      <trkpt lat="58.98596" lon="16.008969">
        <ele>75.3636</ele>
        <time>1970-01-01T01:00:00Z</time>
      </trkpt>
      <trkpt lat="58.985885" lon="16.009068">
        <ele>75.3636</ele>
        <time>1970-01-01T01:00:00Z</time>
      </trkpt>
      <trkpt lat="58.985816" lon="16.009158">
        <ele>75.3636</ele>
        <time>1970-01-01T01:00:00Z</time>
      </trkpt>
      <trkpt lat="58.985738" lon="16.009229">
        <ele>75.3636</ele>
        <time>1970-01-01T01:00:00Z</time>
      </trkpt>
      <trkpt lat="58.98566" lon="16.009274">
        <ele>75.3636</ele>
        <time>1970-01-01T01:00:00Z</time>
      </trkpt>
      <trkpt lat="58.985586" lon="16.009348">
        <ele>75.3636</ele>
        <time>1970-01-01T01:00:00Z</time>
      </trkpt>
      <trkpt lat="58.985498" lon="16.009395">
        <ele>75.2727</ele>
        <time>1970-01-01T01:00:00Z</time>
      </trkpt>
      <trkpt lat="58.985426" lon="16.009489">
        <ele>75.1818</ele>
        <time>1970-01-01T01:00:00Z</time>
      </trkpt>
      <trkpt lat="58.985353" lon="16.009578">
        <ele>75.0909</ele>
        <time>1970-01-01T01:00:00Z</time>
      </trkpt>
      <trkpt lat="58.98527" lon="16.009668">
        <ele>75</ele>
        <time>1970-01-01T01:00:00Z</time>
      </trkpt>
      <trkpt lat="58.985201" lon="16.009776">
        <ele>75</ele>
        <time>1970-01-01T01:00:00Z</time>
      </trkpt>
      <trkpt lat="58.985132" lon="16.009868">
        <ele>75</ele>
        <time>1970-01-01T01:00:00Z</time>
      </trkpt>
      <trkpt lat="58.985058" lon="16.009936">
        <ele>75</ele>
        <time>1970-01-01T01:00:00Z</time>
      </trkpt>
      <trkpt lat="58.984984" lon="16.010015">
        <ele>75</ele>
        <time>1970-01-01T01:00:00Z</time>
      </trkpt>
      <trkpt lat="58.984908" lon="16.010098">
        <ele>75</ele>
        <time>1970-01-01T01:00:00Z</time>
      </trkpt>
      <trkpt lat="58.984827" lon="16.010162">
        <ele>75</ele>
        <time>1970-01-01T01:00:00Z</time>
      </trkpt>
      <trkpt lat="58.984733" lon="16.010192">
        <ele>75.0909</ele>
        <time>1970-01-01T01:00:00Z</time>
      </trkpt>
      <trkpt lat="58.984656" lon="16.010246">
        <ele>75.1818</ele>
        <time>1970-01-01T01:00:00Z</time>
      </trkpt>
      <trkpt lat="58.984575" lon="16.010315">
        <ele>75.2727</ele>
        <time>1970-01-01T01:00:00Z</time>
      </trkpt>
      <trkpt lat="58.984495" lon="16.010405">
        <ele>75.2727</ele>
        <time>1970-01-01T01:00:00Z</time>
      </trkpt>
      <trkpt lat="58.98442" lon="16.010479">
        <ele>75.2727</ele>
        <time>1970-01-01T01:00:00Z</time>
      </trkpt>
      <trkpt lat="58.984345" lon="16.010548">
        <ele>75.2727</ele>
        <time>1970-01-01T01:00:00Z</time>
      </trkpt>
      <trkpt lat="58.984267" lon="16.010618">
        <ele>75.1818</ele>
        <time>1970-01-01T01:00:00Z</time>
      </trkpt>
      <trkpt lat="58.984194" lon="16.010685">
        <ele>75</ele>
        <time>1970-01-01T01:00:00Z</time>
      </trkpt>
      <trkpt lat="58.984121" lon="16.010757">
        <ele>74.8182</ele>
        <time>1970-01-01T01:00:00Z</time>
      </trkpt>
      <trkpt lat="58.98404" lon="16.010791">
        <ele>74.5455</ele>
        <time>1970-01-01T01:00:00Z</time>
      </trkpt>
      <trkpt lat="58.983958" lon="16.010851">
        <ele>74.2727</ele>
        <time>1970-01-01T01:00:00Z</time>
      </trkpt>
      <trkpt lat="58.98387" lon="16.010913">
        <ele>73.8182</ele>
        <time>1970-01-01T01:00:00Z</time>
      </trkpt>
      <trkpt lat="58.983786" lon="16.010921">
        <ele>73.3636</ele>
        <time>1970-01-01T01:00:00Z</time>
      </trkpt>
      <trkpt lat="58.983713" lon="16.010997">
        <ele>73</ele>
        <time>1970-01-01T01:00:00Z</time>
      </trkpt>
      <trkpt lat="58.983643" lon="16.011108">
        <ele>72.7273</ele>
        <time>1970-01-01T01:00:00Z</time>
      </trkpt>
      <trkpt lat="58.983579" lon="16.011244">
        <ele>72.3636</ele>
        <time>1970-01-01T01:00:00Z</time>
      </trkpt>
      <trkpt lat="58.983516" lon="16.011368">
        <ele>72</ele>
        <time>1970-01-01T01:00:00Z</time>
      </trkpt>
      <trkpt lat="58.983473" lon="16.011507">
        <ele>71.7273</ele>
        <time>1970-01-01T01:00:00Z</time>
      </trkpt>
      <trkpt lat="58.983426" lon="16.011645">
        <ele>71.4545</ele>
        <time>1970-01-01T01:00:00Z</time>
      </trkpt>
      <trkpt lat="58.98336" lon="16.011784">
        <ele>71.0909</ele>
        <time>1970-01-01T01:00:00Z</time>
      </trkpt>
      <trkpt lat="58.98329" lon="16.011906">
        <ele>70.7273</ele>
        <time>1970-01-01T01:00:00Z</time>
      </trkpt>
      <trkpt lat="58.983213" lon="16.011989">
        <ele>70.3636</ele>
        <time>1970-01-01T01:00:00Z</time>
      </trkpt>
      <trkpt lat="58.983131" lon="16.012061">
        <ele>70.0909</ele>
        <time>1970-01-01T01:00:00Z</time>
      </trkpt>
      <trkpt lat="58.983058" lon="16.01213">
        <ele>69.7273</ele>
        <time>1970-01-01T01:00:00Z</time>
      </trkpt>
      <trkpt lat="58.982977" lon="16.012163">
        <ele>69.2727</ele>
        <time>1970-01-01T01:00:00Z</time>
      </trkpt>
      <trkpt lat="58.982902" lon="16.012242">
        <ele>68.9091</ele>
        <time>1970-01-01T01:00:00Z</time>
      </trkpt>
      <trkpt lat="58.982845" lon="16.012387">
        <ele>68.6364</ele>
        <time>1970-01-01T01:00:00Z</time>
      </trkpt>
      <trkpt lat="58.982805" lon="16.01254">
        <ele>68.4545</ele>
        <time>1970-01-01T01:00:00Z</time>
      </trkpt>
      <trkpt lat="58.982756" lon="16.012694">
        <ele>68.2727</ele>
        <time>1970-01-01T01:00:00Z</time>
      </trkpt>
      <trkpt lat="58.982727" lon="16.012854">
        <ele>68.2727</ele>
        <time>1970-01-01T01:00:00Z</time>
      </trkpt>
      <trkpt lat="58.982699" lon="16.013028">
        <ele>68.4545</ele>
        <time>1970-01-01T01:00:00Z</time>
      </trkpt>
      <trkpt lat="58.9827" lon="16.013204">
        <ele>68.7273</ele>
        <time>1970-01-01T01:00:00Z</time>
      </trkpt>
      <trkpt lat="58.982708" lon="16.013379">
        <ele>69</ele>
        <time>1970-01-01T01:00:00Z</time>
      </trkpt>
      <trkpt lat="58.982714" lon="16.013563">
        <ele>69.3636</ele>
        <time>1970-01-01T01:00:00Z</time>
      </trkpt>
      <trkpt lat="58.982749" lon="16.01373">
        <ele>69.9091</ele>
        <time>1970-01-01T01:00:00Z</time>
      </trkpt>
      <trkpt lat="58.98277" lon="16.013901">
        <ele>70.4545</ele>
        <time>1970-01-01T01:00:00Z</time>
      </trkpt>
      <trkpt lat="58.982776" lon="16.014059">
        <ele>70.9091</ele>
        <time>1970-01-01T01:00:00Z</time>
      </trkpt>
      <trkpt lat="58.982797" lon="16.014227">
        <ele>71.3636</ele>
        <time>1970-01-01T01:00:00Z</time>
      </trkpt>
      <trkpt lat="58.98282" lon="16.014407">
        <ele>71.7273</ele>
        <time>1970-01-01T01:00:00Z</time>
      </trkpt>
      <trkpt lat="58.982847" lon="16.014575">
        <ele>72.0909</ele>
        <time>1970-01-01T01:00:00Z</time>
      </trkpt>
      <trkpt lat="58.982867" lon="16.014739">
        <ele>72.3636</ele>
        <time>1970-01-01T01:00:00Z</time>
      </trkpt>
      <trkpt lat="58.982901" lon="16.014897">
        <ele>72.5455</ele>
        <time>1970-01-01T01:00:00Z</time>
      </trkpt>
      <trkpt lat="58.982934" lon="16.015054">
        <ele>72.7273</ele>
        <time>1970-01-01T01:00:00Z</time>
      </trkpt>
      <trkpt lat="58.982967" lon="16.0152">
        <ele>73</ele>
        <time>1970-01-01T01:00:00Z</time>
      </trkpt>
      <trkpt lat="58.982991" lon="16.015374">
        <ele>73.1818</ele>
        <time>1970-01-01T01:00:00Z</time>
      </trkpt>
      <trkpt lat="58.983035" lon="16.015527">
        <ele>73.2727</ele>
        <time>1970-01-01T01:00:00Z</time>
      </trkpt>
      <trkpt lat="58.983094" lon="16.015685">
        <ele>73.3636</ele>
        <time>1970-01-01T01:00:00Z</time>
      </trkpt>
      <trkpt lat="58.983129" lon="16.015826">
        <ele>73.5455</ele>
        <time>1970-01-01T01:00:00Z</time>
      </trkpt>
      <trkpt lat="58.983181" lon="16.015954">
        <ele>73.7273</ele>
        <time>1970-01-01T01:00:00Z</time>
      </trkpt>
      <trkpt lat="58.983223" lon="16.016102">
        <ele>74</ele>
        <time>1970-01-01T01:00:00Z</time>
      </trkpt>
      <trkpt lat="58.983259" lon="16.016252">
        <ele>74.2727</ele>
        <time>1970-01-01T01:00:00Z</time>
      </trkpt>
      <trkpt lat="58.983294" lon="16.016402">
        <ele>74.6364</ele>
        <time>1970-01-01T01:00:00Z</time>
      </trkpt>
      <trkpt lat="58.983353" lon="16.01653">
        <ele>75</ele>
        <time>1970-01-01T01:00:00Z</time>
      </trkpt>
      <trkpt lat="58.983417" lon="16.01664">
        <ele>75.4545</ele>
        <time>1970-01-01T01:00:00Z</time>
      </trkpt>
      <trkpt lat="58.983468" lon="16.016811">
        <ele>75.8182</ele>
        <time>1970-01-01T01:00:00Z</time>
      </trkpt>
      <trkpt lat="58.98351" lon="16.016966">
        <ele>76.2727</ele>
        <time>1970-01-01T01:00:00Z</time>
      </trkpt>
      <trkpt lat="58.983563" lon="16.017112">
        <ele>76.7273</ele>
        <time>1970-01-01T01:00:00Z</time>
      </trkpt>
      <trkpt lat="58.983617" lon="16.017257">
        <ele>77.0909</ele>
        <time>1970-01-01T01:00:00Z</time>
      </trkpt>
      <trkpt lat="58.983666" lon="16.017389">
        <ele>77.3636</ele>
        <time>1970-01-01T01:00:00Z</time>
      </trkpt>
      <trkpt lat="58.983677" lon="16.017561">
        <ele>77.6364</ele>
        <time>1970-01-01T01:00:00Z</time>
      </trkpt>
      <trkpt lat="58.983706" lon="16.017729">
        <ele>77.8182</ele>
        <time>1970-01-01T01:00:00Z</time>
      </trkpt>
      <trkpt lat="58.983738" lon="16.017905">
        <ele>78</ele>
        <time>1970-01-01T01:00:00Z</time>
      </trkpt>
      <trkpt lat="58.983762" lon="16.018065">
        <ele>78.0909</ele>
        <time>1970-01-01T01:00:00Z</time>
      </trkpt>
      <trkpt lat="58.983815" lon="16.018199">
        <ele>78.1818</ele>
        <time>1970-01-01T01:00:00Z</time>
      </trkpt>
      <trkpt lat="58.983878" lon="16.018329">
        <ele>78.1818</ele>
        <time>1970-01-01T01:00:00Z</time>
      </trkpt>
      <trkpt lat="58.983918" lon="16.018493">
        <ele>78.0909</ele>
        <time>1970-01-01T01:00:00Z</time>
      </trkpt>
      <trkpt lat="58.983966" lon="16.018642">
        <ele>77.8182</ele>
        <time>1970-01-01T01:00:00Z</time>
      </trkpt>
      <trkpt lat="58.984017" lon="16.018797">
        <ele>77.5455</ele>
        <time>1970-01-01T01:00:00Z</time>
      </trkpt>
      <trkpt lat="58.984067" lon="16.018959">
        <ele>77.2727</ele>
        <time>1970-01-01T01:00:00Z</time>
      </trkpt>
      <trkpt lat="58.984098" lon="16.019115">
        <ele>77</ele>
        <time>1970-01-01T01:00:00Z</time>
      </trkpt>
      <trkpt lat="58.984139" lon="16.019265">
        <ele>76.7273</ele>
        <time>1970-01-01T01:00:00Z</time>
      </trkpt>
      <trkpt lat="58.984175" lon="16.019411">
        <ele>76.3636</ele>
        <time>1970-01-01T01:00:00Z</time>
      </trkpt>
      <trkpt lat="58.984233" lon="16.019535">
        <ele>75.9091</ele>
        <time>1970-01-01T01:00:00Z</time>
      </trkpt>
      <trkpt lat="58.984285" lon="16.019664">
        <ele>75.3636</ele>
        <time>1970-01-01T01:00:00Z</time>
      </trkpt>
      <trkpt lat="58.984322" lon="16.019809">
        <ele>74.8182</ele>
        <time>1970-01-01T01:00:00Z</time>
      </trkpt>
      <trkpt lat="58.984346" lon="16.019981">
        <ele>74.2727</ele>
        <time>1970-01-01T01:00:00Z</time>
      </trkpt>
      <trkpt lat="58.984373" lon="16.020132">
        <ele>73.8182</ele>
        <time>1970-01-01T01:00:00Z</time>
      </trkpt>
      <trkpt lat="58.984407" lon="16.020305">
        <ele>73.3636</ele>
        <time>1970-01-01T01:00:00Z</time>
      </trkpt>
      <trkpt lat="58.984439" lon="16.020466">
        <ele>72.9091</ele>
        <time>1970-01-01T01:00:00Z</time>
      </trkpt>
      <trkpt lat="58.984476" lon="16.020608">
        <ele>72.6364</ele>
        <time>1970-01-01T01:00:00Z</time>
      </trkpt>
      <trkpt lat="58.984526" lon="16.020769">
        <ele>72.3636</ele>
        <time>1970-01-01T01:00:00Z</time>
      </trkpt>
      <trkpt lat="58.984575" lon="16.020914">
        <ele>72</ele>
        <time>1970-01-01T01:00:00Z</time>
      </trkpt>
      <trkpt lat="58.984614" lon="16.021056">
        <ele>71.7273</ele>
        <time>1970-01-01T01:00:00Z</time>
      </trkpt>
      <trkpt lat="58.984659" lon="16.021199">
        <ele>71.5455</ele>
        <time>1970-01-01T01:00:00Z</time>
      </trkpt>
      <trkpt lat="58.984686" lon="16.021353">
        <ele>71.4545</ele>
        <time>1970-01-01T01:00:00Z</time>
      </trkpt>
      <trkpt lat="58.984714" lon="16.021503">
        <ele>71.3636</ele>
        <time>1970-01-01T01:00:00Z</time>
      </trkpt>
      <trkpt lat="58.984734" lon="16.021673">
        <ele>71.2727</ele>
        <time>1970-01-01T01:00:00Z</time>
      </trkpt>
      <trkpt lat="58.984779" lon="16.021822">
        <ele>71.1818</ele>
        <time>1970-01-01T01:00:00Z</time>
      </trkpt>
      <trkpt lat="58.984844" lon="16.021952">
        <ele>71.1818</ele>
        <time>1970-01-01T01:00:00Z</time>
      </trkpt>
      <trkpt lat="58.9849" lon="16.022067">
        <ele>71.1818</ele>
        <time>1970-01-01T01:00:00Z</time>
      </trkpt>
      <trkpt lat="58.984955" lon="16.022207">
        <ele>71.0909</ele>
        <time>1970-01-01T01:00:00Z</time>
      </trkpt>
      <trkpt lat="58.984999" lon="16.022338">
        <ele>71</ele>
        <time>1970-01-01T01:00:00Z</time>
      </trkpt>
      <trkpt lat="58.985042" lon="16.022496">
        <ele>71</ele>
        <time>1970-01-01T01:00:00Z</time>
      </trkpt>
      <trkpt lat="58.985084" lon="16.022633">
        <ele>71</ele>
        <time>1970-01-01T01:00:00Z</time>
      </trkpt>
      <trkpt lat="58.985103" lon="16.022797">
        <ele>71</ele>
        <time>1970-01-01T01:00:00Z</time>
      </trkpt>
      <trkpt lat="58.985134" lon="16.022943">
        <ele>71</ele>
        <time>1970-01-01T01:00:00Z</time>
      </trkpt>
      <trkpt lat="58.985181" lon="16.023074">
        <ele>70.9091</ele>
        <time>1970-01-01T01:00:00Z</time>
      </trkpt>
      <trkpt lat="58.985249" lon="16.0232">
        <ele>70.7273</ele>
        <time>1970-01-01T01:00:00Z</time>
      </trkpt>
      <trkpt lat="58.985304" lon="16.023347">
        <ele>70.5455</ele>
        <time>1970-01-01T01:00:00Z</time>
      </trkpt>
      <trkpt lat="58.985328" lon="16.023515">
        <ele>70.3636</ele>
        <time>1970-01-01T01:00:00Z</time>
      </trkpt>
      <trkpt lat="58.98537" lon="16.023651">
        <ele>70.1818</ele>
        <time>1970-01-01T01:00:00Z</time>
      </trkpt>
      <trkpt lat="58.985419" lon="16.023792">
        <ele>70</ele>
        <time>1970-01-01T01:00:00Z</time>
      </trkpt>
      <trkpt lat="58.985456" lon="16.023954">
        <ele>69.8182</ele>
        <time>1970-01-01T01:00:00Z</time>
      </trkpt>
      <trkpt lat="58.985502" lon="16.024102">
        <ele>69.6364</ele>
        <time>1970-01-01T01:00:00Z</time>
      </trkpt>
      <trkpt lat="58.985541" lon="16.024259">
        <ele>69.5455</ele>
        <time>1970-01-01T01:00:00Z</time>
      </trkpt>
      <trkpt lat="58.985552" lon="16.024443">
        <ele>69.4545</ele>
        <time>1970-01-01T01:00:00Z</time>
      </trkpt>
      <trkpt lat="58.985586" lon="16.0246">
        <ele>69.3636</ele>
        <time>1970-01-01T01:00:00Z</time>
      </trkpt>
      <trkpt lat="58.985625" lon="16.024755">
        <ele>69.3636</ele>
        <time>1970-01-01T01:00:00Z</time>
      </trkpt>
      <trkpt lat="58.985655" lon="16.024924">
        <ele>69.4545</ele>
        <time>1970-01-01T01:00:00Z</time>
      </trkpt>
      <trkpt lat="58.985706" lon="16.025074">
        <ele>69.5455</ele>
        <time>1970-01-01T01:00:00Z</time>
      </trkpt>
      <trkpt lat="58.98576" lon="16.025233">
        <ele>69.7273</ele>
        <time>1970-01-01T01:00:00Z</time>
      </trkpt>
      <trkpt lat="58.985808" lon="16.025371">
        <ele>70</ele>
        <time>1970-01-01T01:00:00Z</time>
      </trkpt>
      <trkpt lat="58.98584" lon="16.025522">
        <ele>70.3636</ele>
        <time>1970-01-01T01:00:00Z</time>
      </trkpt>
      <trkpt lat="58.985861" lon="16.025684">
        <ele>70.7273</ele>
        <time>1970-01-01T01:00:00Z</time>
      </trkpt>
      <trkpt lat="58.985892" lon="16.025847">
        <ele>71.0909</ele>
        <time>1970-01-01T01:00:00Z</time>
      </trkpt>
      <trkpt lat="58.98594" lon="16.025983">
        <ele>71.3636</ele>
        <time>1970-01-01T01:00:00Z</time>
      </trkpt>
      <trkpt lat="58.986011" lon="16.02606">
        <ele>71.6364</ele>
        <time>1970-01-01T01:00:00Z</time>
      </trkpt>
      <trkpt lat="58.986099" lon="16.026077">
        <ele>71.9091</ele>
        <time>1970-01-01T01:00:00Z</time>
      </trkpt>
      <trkpt lat="58.986183" lon="16.025983">
        <ele>72.1818</ele>
        <time>1970-01-01T01:00:00Z</time>
      </trkpt>
      <trkpt lat="58.986245" lon="16.025865">
        <ele>72.4545</ele>
        <time>1970-01-01T01:00:00Z</time>
      </trkpt>
      <trkpt lat="58.986315" lon="16.025741">
        <ele>72.7273</ele>
        <time>1970-01-01T01:00:00Z</time>
      </trkpt>
      <trkpt lat="58.98638" lon="16.025644">
        <ele>72.9091</ele>
        <time>1970-01-01T01:00:00Z</time>
      </trkpt>
      <trkpt lat="58.986434" lon="16.025521">
        <ele>73.0909</ele>
        <time>1970-01-01T01:00:00Z</time>
      </trkpt>
      <trkpt lat="58.986505" lon="16.025433">
        <ele>73.1818</ele>
        <time>1970-01-01T01:00:00Z</time>
      </trkpt>
      <trkpt lat="58.986555" lon="16.025296">
        <ele>73.3636</ele>
        <time>1970-01-01T01:00:00Z</time>
      </trkpt>
      <trkpt lat="58.986606" lon="16.025165">
        <ele>73.6364</ele>
        <time>1970-01-01T01:00:00Z</time>
      </trkpt>
      <trkpt lat="58.986694" lon="16.025084">
        <ele>73.9091</ele>
        <time>1970-01-01T01:00:00Z</time>
      </trkpt>
      <trkpt lat="58.986768" lon="16.024988">
        <ele>74.2727</ele>
        <time>1970-01-01T01:00:00Z</time>
      </trkpt>
      <trkpt lat="58.986846" lon="16.024889">
        <ele>74.7273</ele>
        <time>1970-01-01T01:00:00Z</time>
      </trkpt>
      <trkpt lat="58.986915" lon="16.024794">
        <ele>75.1818</ele>
        <time>1970-01-01T01:00:00Z</time>
      </trkpt>
      <trkpt lat="58.986997" lon="16.024718">
        <ele>75.7273</ele>
        <time>1970-01-01T01:00:00Z</time>
      </trkpt>
      <trkpt lat="58.987073" lon="16.024663">
        <ele>76.2727</ele>
        <time>1970-01-01T01:00:00Z</time>
      </trkpt>
      <trkpt lat="58.987143" lon="16.024568">
        <ele>76.9091</ele>
        <time>1970-01-01T01:00:00Z</time>
      </trkpt>
      <trkpt lat="58.987225" lon="16.024496">
        <ele>77.4545</ele>
        <time>1970-01-01T01:00:00Z</time>
      </trkpt>
      <trkpt lat="58.987311" lon="16.024433">
        <ele>78.0909</ele>
        <time>1970-01-01T01:00:00Z</time>
      </trkpt>
      <trkpt lat="58.987393" lon="16.024358">
        <ele>78.6364</ele>
        <time>1970-01-01T01:00:00Z</time>
      </trkpt>
      <trkpt lat="58.987466" lon="16.024287">
        <ele>79.0909</ele>
        <time>1970-01-01T01:00:00Z</time>
      </trkpt>
      <trkpt lat="58.987545" lon="16.024222">
        <ele>79.5455</ele>
        <time>1970-01-01T01:00:00Z</time>
      </trkpt>
      <trkpt lat="58.987625" lon="16.024192">
        <ele>80</ele>
        <time>1970-01-01T01:00:00Z</time>
      </trkpt>
      <trkpt lat="58.98771" lon="16.024214">
        <ele>80.3636</ele>
        <time>1970-01-01T01:00:00Z</time>
      </trkpt>
      <trkpt lat="58.9878" lon="16.024222">
        <ele>80.7273</ele>
        <time>1970-01-01T01:00:00Z</time>
      </trkpt>
      <trkpt lat="58.987883" lon="16.024224">
        <ele>81</ele>
        <time>1970-01-01T01:00:00Z</time>
      </trkpt>
      <trkpt lat="58.987971" lon="16.024217">
        <ele>81.2727</ele>
        <time>1970-01-01T01:00:00Z</time>
      </trkpt>
      <trkpt lat="58.988053" lon="16.024155">
        <ele>81.5455</ele>
        <time>1970-01-01T01:00:00Z</time>
      </trkpt>
      <trkpt lat="58.98813" lon="16.024054">
        <ele>81.8182</ele>
        <time>1970-01-01T01:00:00Z</time>
      </trkpt>
      <trkpt lat="58.9882" lon="16.023964">
        <ele>82</ele>
        <time>1970-01-01T01:00:00Z</time>
      </trkpt>
      <trkpt lat="58.988282" lon="16.023885">
        <ele>82.1818</ele>
        <time>1970-01-01T01:00:00Z</time>
      </trkpt>
      <trkpt lat="58.988367" lon="16.02382">
        <ele>82.3636</ele>
        <time>1970-01-01T01:00:00Z</time>
      </trkpt>
      <trkpt lat="58.988445" lon="16.023758">
        <ele>82.4545</ele>
        <time>1970-01-01T01:00:00Z</time>
      </trkpt>
      <trkpt lat="58.988529" lon="16.023685">
        <ele>82.4545</ele>
        <time>1970-01-01T01:00:00Z</time>
      </trkpt>
      <trkpt lat="58.988609" lon="16.023618">
        <ele>82.4545</ele>
        <time>1970-01-01T01:00:00Z</time>
      </trkpt>
      <trkpt lat="58.988683" lon="16.023538">
        <ele>82.4545</ele>
        <time>1970-01-01T01:00:00Z</time>
      </trkpt>
      <trkpt lat="58.988759" lon="16.023465">
        <ele>82.4545</ele>
        <time>1970-01-01T01:00:00Z</time>
      </trkpt>
      <trkpt lat="58.988831" lon="16.023362">
        <ele>82.3636</ele>
        <time>1970-01-01T01:00:00Z</time>
      </trkpt>
      <trkpt lat="58.988904" lon="16.023257">
        <ele>82.0909</ele>
        <time>1970-01-01T01:00:00Z</time>
      </trkpt>
      <trkpt lat="58.988982" lon="16.02318">
        <ele>81.7273</ele>
        <time>1970-01-01T01:00:00Z</time>
      </trkpt>
      <trkpt lat="58.989058" lon="16.023123">
        <ele>81.2727</ele>
        <time>1970-01-01T01:00:00Z</time>
      </trkpt>
      <trkpt lat="58.989143" lon="16.023085">
        <ele>80.8182</ele>
        <time>1970-01-01T01:00:00Z</time>
      </trkpt>
      <trkpt lat="58.989229" lon="16.023118">
        <ele>80.3636</ele>
        <time>1970-01-01T01:00:00Z</time>
      </trkpt>
      <trkpt lat="58.989301" lon="16.023219">
        <ele>79.9091</ele>
        <time>1970-01-01T01:00:00Z</time>
      </trkpt>
      <trkpt lat="58.989388" lon="16.023278">
        <ele>79.4545</ele>
        <time>1970-01-01T01:00:00Z</time>
      </trkpt>
      <trkpt lat="58.989473" lon="16.0233">
        <ele>78.9091</ele>
        <time>1970-01-01T01:00:00Z</time>
      </trkpt>
      <trkpt lat="58.989558" lon="16.023332">
        <ele>78.3636</ele>
        <time>1970-01-01T01:00:00Z</time>
      </trkpt>
      <trkpt lat="58.989639" lon="16.023377">
        <ele>77.9091</ele>
        <time>1970-01-01T01:00:00Z</time>
      </trkpt>
      <trkpt lat="58.989725" lon="16.023456">
        <ele>77.5455</ele>
        <time>1970-01-01T01:00:00Z</time>
      </trkpt>
      <trkpt lat="58.989812" lon="16.023535">
        <ele>77.2727</ele>
        <time>1970-01-01T01:00:00Z</time>
      </trkpt>
      <trkpt lat="58.989899" lon="16.023554">
        <ele>77.0909</ele>
        <time>1970-01-01T01:00:00Z</time>
      </trkpt>
      <trkpt lat="58.989991" lon="16.023561">
        <ele>77.0909</ele>
        <time>1970-01-01T01:00:00Z</time>
      </trkpt>
      <trkpt lat="58.990074" lon="16.023517">
        <ele>77.0909</ele>
        <time>1970-01-01T01:00:00Z</time>
      </trkpt>
      <trkpt lat="58.990154" lon="16.02348">
        <ele>77.0909</ele>
        <time>1970-01-01T01:00:00Z</time>
      </trkpt>
      <trkpt lat="58.990247" lon="16.023463">
        <ele>77.2727</ele>
        <time>1970-01-01T01:00:00Z</time>
      </trkpt>
      <trkpt lat="58.990338" lon="16.023434">
        <ele>77.4545</ele>
        <time>1970-01-01T01:00:00Z</time>
      </trkpt>
      <trkpt lat="58.990421" lon="16.023391">
        <ele>77.7273</ele>
        <time>1970-01-01T01:00:00Z</time>
      </trkpt>
      <trkpt lat="58.990507" lon="16.023355">
        <ele>78</ele>
        <time>1970-01-01T01:00:00Z</time>
      </trkpt>
      <trkpt lat="58.990589" lon="16.023311">
        <ele>78.2727</ele>
        <time>1970-01-01T01:00:00Z</time>
      </trkpt>
      <trkpt lat="58.990677" lon="16.023239">
        <ele>78.5455</ele>
        <time>1970-01-01T01:00:00Z</time>
      </trkpt>
      <trkpt lat="58.990755" lon="16.023159">
        <ele>78.8182</ele>
        <time>1970-01-01T01:00:00Z</time>
      </trkpt>
      <trkpt lat="58.990835" lon="16.023091">
        <ele>79</ele>
        <time>1970-01-01T01:00:00Z</time>
      </trkpt>
      <trkpt lat="58.990911" lon="16.02303">
        <ele>79.0909</ele>
        <time>1970-01-01T01:00:00Z</time>
      </trkpt>
      <trkpt lat="58.991" lon="16.022967">
        <ele>79.1818</ele>
        <time>1970-01-01T01:00:00Z</time>
      </trkpt>
      <trkpt lat="58.991082" lon="16.02292">
        <ele>79.0909</ele>
        <time>1970-01-01T01:00:00Z</time>
      </trkpt>
      <trkpt lat="58.991173" lon="16.02287">
        <ele>78.8182</ele>
        <time>1970-01-01T01:00:00Z</time>
      </trkpt>
      <trkpt lat="58.991254" lon="16.022837">
        <ele>78.4545</ele>
        <time>1970-01-01T01:00:00Z</time>
      </trkpt>
      <trkpt lat="58.991336" lon="16.022826">
        <ele>77.9091</ele>
        <time>1970-01-01T01:00:00Z</time>
      </trkpt>
      <trkpt lat="58.991419" lon="16.022767">
        <ele>77.0909</ele>
        <time>1970-01-01T01:00:00Z</time>
      </trkpt>
      <trkpt lat="58.991506" lon="16.022733">
        <ele>76</ele>
        <time>1970-01-01T01:00:00Z</time>
      </trkpt>
      <trkpt lat="58.99159" lon="16.022705">
        <ele>74.8182</ele>
        <time>1970-01-01T01:00:00Z</time>
      </trkpt>
      <trkpt lat="58.991672" lon="16.022695">
        <ele>73.5455</ele>
        <time>1970-01-01T01:00:00Z</time>
      </trkpt>
      <trkpt lat="58.991756" lon="16.022707">
        <ele>72.2727</ele>
        <time>1970-01-01T01:00:00Z</time>
      </trkpt>
      <trkpt lat="58.991854" lon="16.02268">
        <ele>71</ele>
        <time>1970-01-01T01:00:00Z</time>
      </trkpt>
      <trkpt lat="58.991936" lon="16.022696">
        <ele>69.7273</ele>
        <time>1970-01-01T01:00:00Z</time>
      </trkpt>
      <trkpt lat="58.992025" lon="16.022702">
        <ele>68.6364</ele>
        <time>1970-01-01T01:00:00Z</time>
      </trkpt>
      <trkpt lat="58.992111" lon="16.022651">
        <ele>67.7273</ele>
        <time>1970-01-01T01:00:00Z</time>
      </trkpt>
      <trkpt lat="58.992187" lon="16.022572">
        <ele>66.9091</ele>
        <time>1970-01-01T01:00:00Z</time>
      </trkpt>
      <trkpt lat="58.992253" lon="16.022478">
        <ele>66.2727</ele>
        <time>1970-01-01T01:00:00Z</time>
      </trkpt>
      <trkpt lat="58.992315" lon="16.022377">
        <ele>66</ele>
        <time>1970-01-01T01:00:00Z</time>
      </trkpt>
      <trkpt lat="58.992381" lon="16.022273">
        <ele>65.9091</ele>
        <time>1970-01-01T01:00:00Z</time>
      </trkpt>
      <trkpt lat="58.992455" lon="16.022163">
        <ele>65.8182</ele>
        <time>1970-01-01T01:00:00Z</time>
      </trkpt>
      <trkpt lat="58.992514" lon="16.022054">
        <ele>65.7273</ele>
        <time>1970-01-01T01:00:00Z</time>
      </trkpt>
      <trkpt lat="58.99259" lon="16.021918">
        <ele>65.7273</ele>
        <time>1970-01-01T01:00:00Z</time>
      </trkpt>
      <trkpt lat="58.992646" lon="16.021792">
        <ele>65.7273</ele>
        <time>1970-01-01T01:00:00Z</time>
      </trkpt>
      <trkpt lat="58.992718" lon="16.021685">
        <ele>65.6364</ele>
        <time>1970-01-01T01:00:00Z</time>
      </trkpt>
      <trkpt lat="58.99279" lon="16.021597">
        <ele>65.5455</ele>
        <time>1970-01-01T01:00:00Z</time>
      </trkpt>
      <trkpt lat="58.992864" lon="16.021527">
        <ele>65.2727</ele>
        <time>1970-01-01T01:00:00Z</time>
      </trkpt>
      <trkpt lat="58.992938" lon="16.021447">
        <ele>65</ele>
        <time>1970-01-01T01:00:00Z</time>
      </trkpt>
      <trkpt lat="58.993011" lon="16.021349">
        <ele>64.7273</ele>
        <time>1970-01-01T01:00:00Z</time>
      </trkpt>
      <trkpt lat="58.993095" lon="16.021299">
        <ele>64.3636</ele>
        <time>1970-01-01T01:00:00Z</time>
      </trkpt>
      <trkpt lat="58.993176" lon="16.02122">
        <ele>64</ele>
        <time>1970-01-01T01:00:00Z</time>
      </trkpt>
      <trkpt lat="58.993248" lon="16.021143">
        <ele>63.6364</ele>
        <time>1970-01-01T01:00:00Z</time>
      </trkpt>
      <trkpt lat="58.993324" lon="16.021071">
        <ele>63.3636</ele>
        <time>1970-01-01T01:00:00Z</time>
      </trkpt>
      <trkpt lat="58.993403" lon="16.021006">
        <ele>63</ele>
        <time>1970-01-01T01:00:00Z</time>
      </trkpt>
      <trkpt lat="58.99349" lon="16.020947">
        <ele>62.6364</ele>
        <time>1970-01-01T01:00:00Z</time>
      </trkpt>
      <trkpt lat="58.993572" lon="16.020892">
        <ele>62.3636</ele>
        <time>1970-01-01T01:00:00Z</time>
      </trkpt>
      <trkpt lat="58.99366" lon="16.020871">
        <ele>62.0909</ele>
        <time>1970-01-01T01:00:00Z</time>
      </trkpt>
      <trkpt lat="58.993751" lon="16.020857">
        <ele>61.8182</ele>
        <time>1970-01-01T01:00:00Z</time>
      </trkpt>
      <trkpt lat="58.993836" lon="16.020852">
        <ele>61.5455</ele>
        <time>1970-01-01T01:00:00Z</time>
      </trkpt>
      <trkpt lat="58.993926" lon="16.020841">
        <ele>61.1818</ele>
        <time>1970-01-01T01:00:00Z</time>
      </trkpt>
      <trkpt lat="58.994009" lon="16.020802">
        <ele>60.8182</ele>
        <time>1970-01-01T01:00:00Z</time>
      </trkpt>
      <trkpt lat="58.994088" lon="16.020754">
        <ele>60.3636</ele>
        <time>1970-01-01T01:00:00Z</time>
      </trkpt>
      <trkpt lat="58.994173" lon="16.020752">
        <ele>59.9091</ele>
        <time>1970-01-01T01:00:00Z</time>
      </trkpt>
      <trkpt lat="58.994261" lon="16.020772">
        <ele>59.4545</ele>
        <time>1970-01-01T01:00:00Z</time>
      </trkpt>
      <trkpt lat="58.994346" lon="16.020787">
        <ele>59</ele>
        <time>1970-01-01T01:00:00Z</time>
      </trkpt>
      <trkpt lat="58.994418" lon="16.020901">
        <ele>58.5455</ele>
        <time>1970-01-01T01:00:00Z</time>
      </trkpt>
      <trkpt lat="58.99448" lon="16.021014">
        <ele>58</ele>
        <time>1970-01-01T01:00:00Z</time>
      </trkpt>
      <trkpt lat="58.994556" lon="16.02113">
        <ele>57.4545</ele>
        <time>1970-01-01T01:00:00Z</time>
      </trkpt>
      <trkpt lat="58.994617" lon="16.021235">
        <ele>57</ele>
        <time>1970-01-01T01:00:00Z</time>
      </trkpt>
      <trkpt lat="58.994685" lon="16.021346">
        <ele>56.5455</ele>
        <time>1970-01-01T01:00:00Z</time>
      </trkpt>
      <trkpt lat="58.994748" lon="16.021455">
        <ele>56.1818</ele>
        <time>1970-01-01T01:00:00Z</time>
      </trkpt>
      <trkpt lat="58.994818" lon="16.021568">
        <ele>55.8182</ele>
        <time>1970-01-01T01:00:00Z</time>
      </trkpt>
      <trkpt lat="58.994884" lon="16.021671">
        <ele>55.6364</ele>
        <time>1970-01-01T01:00:00Z</time>
      </trkpt>
      <trkpt lat="58.994951" lon="16.021773">
        <ele>55.5455</ele>
        <time>1970-01-01T01:00:00Z</time>
      </trkpt>
      <trkpt lat="58.995017" lon="16.021865">
        <ele>55.5455</ele>
        <time>1970-01-01T01:00:00Z</time>
      </trkpt>
      <trkpt lat="58.995094" lon="16.021965">
        <ele>55.7273</ele>
        <time>1970-01-01T01:00:00Z</time>
      </trkpt>
      <trkpt lat="58.995172" lon="16.022064">
        <ele>56</ele>
        <time>1970-01-01T01:00:00Z</time>
      </trkpt>
      <trkpt lat="58.995241" lon="16.022158">
        <ele>56.4545</ele>
        <time>1970-01-01T01:00:00Z</time>
      </trkpt>
      <trkpt lat="58.995312" lon="16.022275">
        <ele>56.9091</ele>
        <time>1970-01-01T01:00:00Z</time>
      </trkpt>
      <trkpt lat="58.995378" lon="16.022404">
        <ele>57.4545</ele>
        <time>1970-01-01T01:00:00Z</time>
      </trkpt>
      <trkpt lat="58.995439" lon="16.022543">
        <ele>58.0909</ele>
        <time>1970-01-01T01:00:00Z</time>
      </trkpt>
      <trkpt lat="58.995497" lon="16.022655">
        <ele>58.8182</ele>
        <time>1970-01-01T01:00:00Z</time>
      </trkpt>
      <trkpt lat="58.995564" lon="16.022775">
        <ele>59.6364</ele>
        <time>1970-01-01T01:00:00Z</time>
      </trkpt>
      <trkpt lat="58.995629" lon="16.022883">
        <ele>60.3636</ele>
        <time>1970-01-01T01:00:00Z</time>
      </trkpt>
      <trkpt lat="58.995698" lon="16.022992">
        <ele>61.1818</ele>
        <time>1970-01-01T01:00:00Z</time>
      </trkpt>
      <trkpt lat="58.995761" lon="16.023096">
        <ele>61.9091</ele>
        <time>1970-01-01T01:00:00Z</time>
      </trkpt>
      <trkpt lat="58.99583" lon="16.023229">
        <ele>62.6364</ele>
        <time>1970-01-01T01:00:00Z</time>
      </trkpt>
      <trkpt lat="58.995893" lon="16.023347">
        <ele>63.2727</ele>
        <time>1970-01-01T01:00:00Z</time>
      </trkpt>
      <trkpt lat="58.995963" lon="16.023448">
        <ele>63.9091</ele>
        <time>1970-01-01T01:00:00Z</time>
      </trkpt>
      <trkpt lat="58.996019" lon="16.023563">
        <ele>64.5455</ele>
        <time>1970-01-01T01:00:00Z</time>
      </trkpt>
      <trkpt lat="58.996096" lon="16.023659">
        <ele>65.1818</ele>
        <time>1970-01-01T01:00:00Z</time>
      </trkpt>
      <trkpt lat="58.996165" lon="16.023754">
        <ele>65.9091</ele>
        <time>1970-01-01T01:00:00Z</time>
      </trkpt>
      <trkpt lat="58.99624" lon="16.023856">
        <ele>66.5455</ele>
        <time>1970-01-01T01:00:00Z</time>
      </trkpt>
      <trkpt lat="58.996306" lon="16.023971">
        <ele>67.0909</ele>
        <time>1970-01-01T01:00:00Z</time>
      </trkpt>
      <trkpt lat="58.996362" lon="16.024086">
        <ele>67.6364</ele>
        <time>1970-01-01T01:00:00Z</time>
      </trkpt>
      <trkpt lat="58.99643" lon="16.024205">
        <ele>68.0909</ele>
        <time>1970-01-01T01:00:00Z</time>
      </trkpt>
      <trkpt lat="58.996419" lon="16.024383">
        <ele>68.5455</ele>
        <time>1970-01-01T01:00:00Z</time>
      </trkpt>
      <trkpt lat="58.996394" lon="16.024549">
        <ele>68.9091</ele>
        <time>1970-01-01T01:00:00Z</time>
      </trkpt>
      <trkpt lat="58.996372" lon="16.024711">
        <ele>69.1818</ele>
        <time>1970-01-01T01:00:00Z</time>
      </trkpt>
      <trkpt lat="58.996346" lon="16.024864">
        <ele>69.3636</ele>
        <time>1970-01-01T01:00:00Z</time>
      </trkpt>
      <trkpt lat="58.996296" lon="16.024999">
        <ele>69.5455</ele>
        <time>1970-01-01T01:00:00Z</time>
      </trkpt>
      <trkpt lat="58.996242" lon="16.025137">
        <ele>69.6364</ele>
        <time>1970-01-01T01:00:00Z</time>
      </trkpt>
      <trkpt lat="58.996185" lon="16.025286">
        <ele>69.5455</ele>
        <time>1970-01-01T01:00:00Z</time>
      </trkpt>
      <trkpt lat="58.996113" lon="16.025384">
        <ele>69.4545</ele>
        <time>1970-01-01T01:00:00Z</time>
      </trkpt>
      <trkpt lat="58.996053" lon="16.0255">
        <ele>69.3636</ele>
        <time>1970-01-01T01:00:00Z</time>
      </trkpt>
      <trkpt lat="58.995982" lon="16.025575">
        <ele>69.2727</ele>
        <time>1970-01-01T01:00:00Z</time>
      </trkpt>
      <trkpt lat="58.995927" lon="16.025711">
        <ele>69.1818</ele>
        <time>1970-01-01T01:00:00Z</time>
      </trkpt>
      <trkpt lat="58.995861" lon="16.025835">
        <ele>69.0909</ele>
        <time>1970-01-01T01:00:00Z</time>
      </trkpt>
      <trkpt lat="58.995807" lon="16.025985">
        <ele>69</ele>
        <time>1970-01-01T01:00:00Z</time>
      </trkpt>
      <trkpt lat="58.995789" lon="16.026166">
        <ele>69</ele>
        <time>1970-01-01T01:00:00Z</time>
      </trkpt>
      <trkpt lat="58.995731" lon="16.026295">
        <ele>69</ele>
        <time>1970-01-01T01:00:00Z</time>
      </trkpt>
      <trkpt lat="58.995667" lon="16.026422">
        <ele>69.0909</ele>
        <time>1970-01-01T01:00:00Z</time>
      </trkpt>
      <trkpt lat="58.995619" lon="16.026569">
        <ele>69.1818</ele>
        <time>1970-01-01T01:00:00Z</time>
      </trkpt>
      <trkpt lat="58.995587" lon="16.026731">
        <ele>69.2727</ele>
        <time>1970-01-01T01:00:00Z</time>
      </trkpt>
      <trkpt lat="58.995542" lon="16.026873">
        <ele>69.3636</ele>
        <time>1970-01-01T01:00:00Z</time>
      </trkpt>
      <trkpt lat="58.995492" lon="16.027011">
        <ele>69.5455</ele>
        <time>1970-01-01T01:00:00Z</time>
      </trkpt>
      <trkpt lat="58.995424" lon="16.027101">
        <ele>69.7273</ele>
        <time>1970-01-01T01:00:00Z</time>
      </trkpt>
      <trkpt lat="58.995347" lon="16.0272">
        <ele>69.9091</ele>
        <time>1970-01-01T01:00:00Z</time>
      </trkpt>
      <trkpt lat="58.995264" lon="16.027262">
        <ele>70.1818</ele>
        <time>1970-01-01T01:00:00Z</time>
      </trkpt>
      <trkpt lat="58.995183" lon="16.027324">
        <ele>70.4545</ele>
        <time>1970-01-01T01:00:00Z</time>
      </trkpt>
      <trkpt lat="58.995104" lon="16.027384">
        <ele>70.7273</ele>
        <time>1970-01-01T01:00:00Z</time>
      </trkpt>
      <trkpt lat="58.995023" lon="16.027421">
        <ele>71</ele>
        <time>1970-01-01T01:00:00Z</time>
      </trkpt>
      <trkpt lat="58.99494" lon="16.027405">
        <ele>71.0909</ele>
        <time>1970-01-01T01:00:00Z</time>
      </trkpt>
      <trkpt lat="58.99485" lon="16.027409">
        <ele>71.1818</ele>
        <time>1970-01-01T01:00:00Z</time>
      </trkpt>
      <trkpt lat="58.994761" lon="16.027441">
        <ele>71.2727</ele>
        <time>1970-01-01T01:00:00Z</time>
      </trkpt>
      <trkpt lat="58.994676" lon="16.027456">
        <ele>71.3636</ele>
        <time>1970-01-01T01:00:00Z</time>
      </trkpt>
      <trkpt lat="58.994588" lon="16.027474">
        <ele>71.3636</ele>
        <time>1970-01-01T01:00:00Z</time>
      </trkpt>
      <trkpt lat="58.994506" lon="16.027513">
        <ele>71.3636</ele>
        <time>1970-01-01T01:00:00Z</time>
      </trkpt>
      <trkpt lat="58.994426" lon="16.027547">
        <ele>71.2727</ele>
        <time>1970-01-01T01:00:00Z</time>
      </trkpt>
      <trkpt lat="58.994334" lon="16.027576">
        <ele>71.0909</ele>
        <time>1970-01-01T01:00:00Z</time>
      </trkpt>
      <trkpt lat="58.994249" lon="16.027639">
        <ele>70.9091</ele>
        <time>1970-01-01T01:00:00Z</time>
      </trkpt>
      <trkpt lat="58.99417" lon="16.027686">
        <ele>70.7273</ele>
        <time>1970-01-01T01:00:00Z</time>
      </trkpt>
      <trkpt lat="58.994091" lon="16.027758">
        <ele>70.5455</ele>
        <time>1970-01-01T01:00:00Z</time>
      </trkpt>
      <trkpt lat="58.994003" lon="16.027785">
        <ele>70.4545</ele>
        <time>1970-01-01T01:00:00Z</time>
      </trkpt>
      <trkpt lat="58.993924" lon="16.027856">
        <ele>70.3636</ele>
        <time>1970-01-01T01:00:00Z</time>
      </trkpt>
      <trkpt lat="58.993835" lon="16.027884">
        <ele>70.3636</ele>
        <time>1970-01-01T01:00:00Z</time>
      </trkpt>
      <trkpt lat="58.993755" lon="16.027952">
        <ele>70.3636</ele>
        <time>1970-01-01T01:00:00Z</time>
      </trkpt>
      <trkpt lat="58.993687" lon="16.028049">
        <ele>70.3636</ele>
        <time>1970-01-01T01:00:00Z</time>
      </trkpt>
      <trkpt lat="58.993607" lon="16.028137">
        <ele>70.3636</ele>
        <time>1970-01-01T01:00:00Z</time>
      </trkpt>
      <trkpt lat="58.993532" lon="16.028217">
        <ele>70.3636</ele>
        <time>1970-01-01T01:00:00Z</time>
      </trkpt>
      <trkpt lat="58.993454" lon="16.028286">
        <ele>70.3636</ele>
        <time>1970-01-01T01:00:00Z</time>
      </trkpt>
      <trkpt lat="58.993379" lon="16.028391">
        <ele>70.3636</ele>
        <time>1970-01-01T01:00:00Z</time>
      </trkpt>
      <trkpt lat="58.9933" lon="16.028439">
        <ele>70.2727</ele>
        <time>1970-01-01T01:00:00Z</time>
      </trkpt>
      <trkpt lat="58.993212" lon="16.028478">
        <ele>70.0909</ele>
        <time>1970-01-01T01:00:00Z</time>
      </trkpt>
      <trkpt lat="58.993129" lon="16.02853">
        <ele>69.9091</ele>
        <time>1970-01-01T01:00:00Z</time>
      </trkpt>
      <trkpt lat="58.993067" lon="16.028639">
        <ele>69.6364</ele>
        <time>1970-01-01T01:00:00Z</time>
      </trkpt>
      <trkpt lat="58.992997" lon="16.028742">
        <ele>69.1818</ele>
        <time>1970-01-01T01:00:00Z</time>
      </trkpt>
      <trkpt lat="58.992919" lon="16.028824">
        <ele>68.7273</ele>
        <time>1970-01-01T01:00:00Z</time>
      </trkpt>
      <trkpt lat="58.992841" lon="16.028884">
        <ele>68.1818</ele>
        <time>1970-01-01T01:00:00Z</time>
      </trkpt>
      <trkpt lat="58.992788" lon="16.029003">
        <ele>67.6364</ele>
        <time>1970-01-01T01:00:00Z</time>
      </trkpt>
      <trkpt lat="58.992714" lon="16.029099">
        <ele>67.0909</ele>
        <time>1970-01-01T01:00:00Z</time>
      </trkpt>
      <trkpt lat="58.992633" lon="16.029169">
        <ele>66.5455</ele>
        <time>1970-01-01T01:00:00Z</time>
      </trkpt>
      <trkpt lat="58.992547" lon="16.02923">
        <ele>66</ele>
        <time>1970-01-01T01:00:00Z</time>
      </trkpt>
      <trkpt lat="58.992458" lon="16.029242">
        <ele>65.5455</ele>
        <time>1970-01-01T01:00:00Z</time>
      </trkpt>
      <trkpt lat="58.992378" lon="16.029331">
        <ele>65.2727</ele>
        <time>1970-01-01T01:00:00Z</time>
      </trkpt>
      <trkpt lat="58.992294" lon="16.029397">
        <ele>65</ele>
        <time>1970-01-01T01:00:00Z</time>
      </trkpt>
      <trkpt lat="58.992218" lon="16.029502">
        <ele>64.9091</ele>
        <time>1970-01-01T01:00:00Z</time>
      </trkpt>
      <trkpt lat="58.992129" lon="16.029575">
        <ele>64.9091</ele>
        <time>1970-01-01T01:00:00Z</time>
      </trkpt>
      <trkpt lat="58.992045" lon="16.029615">
        <ele>64.9091</ele>
        <time>1970-01-01T01:00:00Z</time>
      </trkpt>
      <trkpt lat="58.991961" lon="16.029698">
        <ele>65</ele>
        <time>1970-01-01T01:00:00Z</time>
      </trkpt>
      <trkpt lat="58.991892" lon="16.029798">
        <ele>65</ele>
        <time>1970-01-01T01:00:00Z</time>
      </trkpt>
      <trkpt lat="58.991829" lon="16.029919">
        <ele>65.0909</ele>
        <time>1970-01-01T01:00:00Z</time>
      </trkpt>
      <trkpt lat="58.991754" lon="16.030002">
        <ele>65.1818</ele>
        <time>1970-01-01T01:00:00Z</time>
      </trkpt>
      <trkpt lat="58.991667" lon="16.03003">
        <ele>65.3636</ele>
        <time>1970-01-01T01:00:00Z</time>
      </trkpt>
      <trkpt lat="58.991577" lon="16.030087">
        <ele>65.5455</ele>
        <time>1970-01-01T01:00:00Z</time>
      </trkpt>
      <trkpt lat="58.991498" lon="16.030121">
        <ele>65.7273</ele>
        <time>1970-01-01T01:00:00Z</time>
      </trkpt>
      <trkpt lat="58.991426" lon="16.030214">
        <ele>66</ele>
        <time>1970-01-01T01:00:00Z</time>
      </trkpt>
      <trkpt lat="58.991367" lon="16.030324">
        <ele>66.1818</ele>
        <time>1970-01-01T01:00:00Z</time>
      </trkpt>
      <trkpt lat="58.991319" lon="16.030465">
        <ele>66.4545</ele>
        <time>1970-01-01T01:00:00Z</time>
      </trkpt>
      <trkpt lat="58.991269" lon="16.030602">
        <ele>66.6364</ele>
        <time>1970-01-01T01:00:00Z</time>
      </trkpt>
      <trkpt lat="58.991224" lon="16.030735">
        <ele>66.8182</ele>
        <time>1970-01-01T01:00:00Z</time>
      </trkpt>
      <trkpt lat="58.991178" lon="16.030866">
        <ele>67.1818</ele>
        <time>1970-01-01T01:00:00Z</time>
      </trkpt>
      <trkpt lat="58.991122" lon="16.031001">
        <ele>67.5455</ele>
        <time>1970-01-01T01:00:00Z</time>
      </trkpt>
      <trkpt lat="58.991062" lon="16.031132">
        <ele>67.9091</ele>
        <time>1970-01-01T01:00:00Z</time>
      </trkpt>
      <trkpt lat="58.991013" lon="16.031264">
        <ele>68.2727</ele>
        <time>1970-01-01T01:00:00Z</time>
      </trkpt>
      <trkpt lat="58.990959" lon="16.031408">
        <ele>68.6364</ele>
        <time>1970-01-01T01:00:00Z</time>
      </trkpt>
      <trkpt lat="58.990909" lon="16.031552">
        <ele>69</ele>
        <time>1970-01-01T01:00:00Z</time>
      </trkpt>
      <trkpt lat="58.990862" lon="16.031682">
        <ele>69.2727</ele>
        <time>1970-01-01T01:00:00Z</time>
      </trkpt>
      <trkpt lat="58.990816" lon="16.031836">
        <ele>69.5455</ele>
        <time>1970-01-01T01:00:00Z</time>
      </trkpt>
      <trkpt lat="58.990767" lon="16.031977">
        <ele>69.8182</ele>
        <time>1970-01-01T01:00:00Z</time>
      </trkpt>
      <trkpt lat="58.990709" lon="16.032117">
        <ele>70.1818</ele>
        <time>1970-01-01T01:00:00Z</time>
      </trkpt>
      <trkpt lat="58.990655" lon="16.032246">
        <ele>70.5455</ele>
        <time>1970-01-01T01:00:00Z</time>
      </trkpt>
      <trkpt lat="58.990594" lon="16.032379">
        <ele>70.7273</ele>
        <time>1970-01-01T01:00:00Z</time>
      </trkpt>
      <trkpt lat="58.990551" lon="16.032515">
        <ele>70.9091</ele>
        <time>1970-01-01T01:00:00Z</time>
      </trkpt>
      <trkpt lat="58.990513" lon="16.032654">
        <ele>71.0909</ele>
        <time>1970-01-01T01:00:00Z</time>
      </trkpt>
      <trkpt lat="58.990447" lon="16.032752">
        <ele>71.1818</ele>
        <time>1970-01-01T01:00:00Z</time>
      </trkpt>
      <trkpt lat="58.990371" lon="16.032838">
        <ele>71.1818</ele>
        <time>1970-01-01T01:00:00Z</time>
      </trkpt>
      <trkpt lat="58.990306" lon="16.032953">
        <ele>71.0909</ele>
        <time>1970-01-01T01:00:00Z</time>
      </trkpt>
      <trkpt lat="58.99025" lon="16.033097">
        <ele>71</ele>
        <time>1970-01-01T01:00:00Z</time>
      </trkpt>
      <trkpt lat="58.990221" lon="16.033253">
        <ele>70.9091</ele>
        <time>1970-01-01T01:00:00Z</time>
      </trkpt>
      <trkpt lat="58.990198" lon="16.033413">
        <ele>70.7273</ele>
        <time>1970-01-01T01:00:00Z</time>
      </trkpt>
      <trkpt lat="58.990148" lon="16.03356">
        <ele>70.4545</ele>
        <time>1970-01-01T01:00:00Z</time>
      </trkpt>
      <trkpt lat="58.990095" lon="16.033693">
        <ele>70.1818</ele>
        <time>1970-01-01T01:00:00Z</time>
      </trkpt>
      <trkpt lat="58.990056" lon="16.033832">
        <ele>69.9091</ele>
        <time>1970-01-01T01:00:00Z</time>
      </trkpt>
      <trkpt lat="58.99002" lon="16.033986">
        <ele>69.6364</ele>
        <time>1970-01-01T01:00:00Z</time>
      </trkpt>
      <trkpt lat="58.989997" lon="16.034154">
        <ele>69.2727</ele>
        <time>1970-01-01T01:00:00Z</time>
      </trkpt>
      <trkpt lat="58.989929" lon="16.034258">
        <ele>68.8182</ele>
        <time>1970-01-01T01:00:00Z</time>
      </trkpt>
      <trkpt lat="58.989865" lon="16.03437">
        <ele>68.4545</ele>
        <time>1970-01-01T01:00:00Z</time>
      </trkpt>
      <trkpt lat="58.989801" lon="16.034488">
        <ele>68.0909</ele>
        <time>1970-01-01T01:00:00Z</time>
      </trkpt>
      <trkpt lat="58.989726" lon="16.034583">
        <ele>67.8182</ele>
        <time>1970-01-01T01:00:00Z</time>
      </trkpt>
      <trkpt lat="58.989651" lon="16.034647">
        <ele>67.5455</ele>
        <time>1970-01-01T01:00:00Z</time>
      </trkpt>
      <trkpt lat="58.989575" lon="16.034725">
        <ele>67.2727</ele>
        <time>1970-01-01T01:00:00Z</time>
      </trkpt>
      <trkpt lat="58.989509" lon="16.034828">
        <ele>67.0909</ele>
        <time>1970-01-01T01:00:00Z</time>
      </trkpt>
      <trkpt lat="58.989437" lon="16.034927">
        <ele>66.8182</ele>
        <time>1970-01-01T01:00:00Z</time>
      </trkpt>
      <trkpt lat="58.989387" lon="16.035079">
        <ele>66.5455</ele>
        <time>1970-01-01T01:00:00Z</time>
      </trkpt>
      <trkpt lat="58.989352" lon="16.03522">
        <ele>66.2727</ele>
        <time>1970-01-01T01:00:00Z</time>
      </trkpt>
      <trkpt lat="58.989315" lon="16.035383">
        <ele>66</ele>
        <time>1970-01-01T01:00:00Z</time>
      </trkpt>
      <trkpt lat="58.989268" lon="16.035521">
        <ele>65.8182</ele>
        <time>1970-01-01T01:00:00Z</time>
      </trkpt>
      <trkpt lat="58.989232" lon="16.035685">
        <ele>65.6364</ele>
        <time>1970-01-01T01:00:00Z</time>
      </trkpt>
      <trkpt lat="58.989205" lon="16.035835">
        <ele>65.3636</ele>
        <time>1970-01-01T01:00:00Z</time>
      </trkpt>
      <trkpt lat="58.989178" lon="16.035985">
        <ele>65</ele>
        <time>1970-01-01T01:00:00Z</time>
      </trkpt>
      <trkpt lat="58.989145" lon="16.036144">
        <ele>64.6364</ele>
        <time>1970-01-01T01:00:00Z</time>
      </trkpt>
      <trkpt lat="58.989113" lon="16.036294">
        <ele>64.3636</ele>
        <time>1970-01-01T01:00:00Z</time>
      </trkpt>
      <trkpt lat="58.989056" lon="16.036433">
        <ele>64.1818</ele>
        <time>1970-01-01T01:00:00Z</time>
      </trkpt>
      <trkpt lat="58.988996" lon="16.036548">
        <ele>64.1818</ele>
        <time>1970-01-01T01:00:00Z</time>
      </trkpt>
      <trkpt lat="58.988919" lon="16.036614">
        <ele>64.2727</ele>
        <time>1970-01-01T01:00:00Z</time>
      </trkpt>
      <trkpt lat="58.988845" lon="16.036723">
        <ele>64.4545</ele>
        <time>1970-01-01T01:00:00Z</time>
      </trkpt>
      <trkpt lat="58.988778" lon="16.036824">
        <ele>64.8182</ele>
        <time>1970-01-01T01:00:00Z</time>
      </trkpt>
      <trkpt lat="58.988703" lon="16.036911">
        <ele>65.0909</ele>
        <time>1970-01-01T01:00:00Z</time>
      </trkpt>
      <trkpt lat="58.988632" lon="16.03701">
        <ele>65.3636</ele>
        <time>1970-01-01T01:00:00Z</time>
      </trkpt>
      <trkpt lat="58.988576" lon="16.037132">
        <ele>65.7273</ele>
        <time>1970-01-01T01:00:00Z</time>
      </trkpt>
      <trkpt lat="58.988521" lon="16.037296">
        <ele>66.0909</ele>
        <time>1970-01-01T01:00:00Z</time>
      </trkpt>
      <trkpt lat="58.988479" lon="16.037438">
        <ele>66.4545</ele>
        <time>1970-01-01T01:00:00Z</time>
      </trkpt>
      <trkpt lat="58.988473" lon="16.037613">
        <ele>66.8182</ele>
        <time>1970-01-01T01:00:00Z</time>
      </trkpt>
      <trkpt lat="58.988448" lon="16.037771">
        <ele>67.1818</ele>
        <time>1970-01-01T01:00:00Z</time>
      </trkpt>
      <trkpt lat="58.988419" lon="16.037921">
        <ele>67.5455</ele>
        <time>1970-01-01T01:00:00Z</time>
      </trkpt>
      <trkpt lat="58.988405" lon="16.038105">
        <ele>68</ele>
        <time>1970-01-01T01:00:00Z</time>
      </trkpt>
      <trkpt lat="58.988383" lon="16.038262">
        <ele>68.4545</ele>
        <time>1970-01-01T01:00:00Z</time>
      </trkpt>
      <trkpt lat="58.988385" lon="16.038436">
        <ele>68.9091</ele>
        <time>1970-01-01T01:00:00Z</time>
      </trkpt>
      <trkpt lat="58.988374" lon="16.038595">
        <ele>69.5455</ele>
        <time>1970-01-01T01:00:00Z</time>
      </trkpt>
      <trkpt lat="58.988342" lon="16.038746">
        <ele>70.1818</ele>
        <time>1970-01-01T01:00:00Z</time>
      </trkpt>
      <trkpt lat="58.988331" lon="16.038906">
        <ele>70.8182</ele>
        <time>1970-01-01T01:00:00Z</time>
      </trkpt>
      <trkpt lat="58.988306" lon="16.039058">
        <ele>71.3636</ele>
        <time>1970-01-01T01:00:00Z</time>
      </trkpt>
      <trkpt lat="58.988226" lon="16.039139">
        <ele>71.8182</ele>
        <time>1970-01-01T01:00:00Z</time>
      </trkpt>
      <trkpt lat="58.988139" lon="16.039093">
        <ele>72.1818</ele>
        <time>1970-01-01T01:00:00Z</time>
      </trkpt>
      <trkpt lat="58.988096" lon="16.038952">
        <ele>72.5455</ele>
        <time>1970-01-01T01:00:00Z</time>
      </trkpt>
      <trkpt lat="58.988027" lon="16.038855">
        <ele>72.7273</ele>
        <time>1970-01-01T01:00:00Z</time>
      </trkpt>
      <trkpt lat="58.987966" lon="16.038746">
        <ele>72.9091</ele>
        <time>1970-01-01T01:00:00Z</time>
      </trkpt>
      <trkpt lat="58.987902" lon="16.03864">
        <ele>73</ele>
        <time>1970-01-01T01:00:00Z</time>
      </trkpt>
      <trkpt lat="58.987848" lon="16.038522">
        <ele>73</ele>
        <time>1970-01-01T01:00:00Z</time>
      </trkpt>
      <trkpt lat="58.987761" lon="16.038461">
        <ele>72.8182</ele>
        <time>1970-01-01T01:00:00Z</time>
      </trkpt>
      <trkpt lat="58.987693" lon="16.038354">
        <ele>72.5455</ele>
        <time>1970-01-01T01:00:00Z</time>
      </trkpt>
      <trkpt lat="58.987615" lon="16.038273">
        <ele>72.2727</ele>
        <time>1970-01-01T01:00:00Z</time>
      </trkpt>
      <trkpt lat="58.98753" lon="16.038176">
        <ele>72.0909</ele>
        <time>1970-01-01T01:00:00Z</time>
      </trkpt>
      <trkpt lat="58.987464" lon="16.038075">
        <ele>71.9091</ele>
        <time>1970-01-01T01:00:00Z</time>
      </trkpt>
      <trkpt lat="58.987372" lon="16.038027">
        <ele>71.7273</ele>
        <time>1970-01-01T01:00:00Z</time>
      </trkpt>
      <trkpt lat="58.987288" lon="16.038051">
        <ele>71.3636</ele>
        <time>1970-01-01T01:00:00Z</time>
      </trkpt>
      <trkpt lat="58.987201" lon="16.038045">
        <ele>71.0909</ele>
        <time>1970-01-01T01:00:00Z</time>
      </trkpt>
      <trkpt lat="58.98711" lon="16.038047">
        <ele>70.7273</ele>
        <time>1970-01-01T01:00:00Z</time>
      </trkpt>
      <trkpt lat="58.987022" lon="16.038007">
        <ele>70.2727</ele>
        <time>1970-01-01T01:00:00Z</time>
      </trkpt>
      <trkpt lat="58.986935" lon="16.037993">
        <ele>69.8182</ele>
        <time>1970-01-01T01:00:00Z</time>
      </trkpt>
      <trkpt lat="58.986851" lon="16.037956">
        <ele>69.4545</ele>
        <time>1970-01-01T01:00:00Z</time>
      </trkpt>
      <trkpt lat="58.986766" lon="16.037932">
        <ele>69.1818</ele>
        <time>1970-01-01T01:00:00Z</time>
      </trkpt>
      <trkpt lat="58.986675" lon="16.037928">
        <ele>69</ele>
        <time>1970-01-01T01:00:00Z</time>
      </trkpt>
      <trkpt lat="58.98659" lon="16.037905">
        <ele>68.8182</ele>
        <time>1970-01-01T01:00:00Z</time>
      </trkpt>
      <trkpt lat="58.986506" lon="16.037898">
        <ele>68.7273</ele>
        <time>1970-01-01T01:00:00Z</time>
      </trkpt>
      <trkpt lat="58.986413" lon="16.037904">
        <ele>68.7273</ele>
        <time>1970-01-01T01:00:00Z</time>
      </trkpt>
      <trkpt lat="58.986328" lon="16.037887">
        <ele>68.9091</ele>
        <time>1970-01-01T01:00:00Z</time>
      </trkpt>
      <trkpt lat="58.986242" lon="16.037903">
        <ele>69.1818</ele>
        <time>1970-01-01T01:00:00Z</time>
      </trkpt>
      <trkpt lat="58.986159" lon="16.037887">
        <ele>69.4545</ele>
        <time>1970-01-01T01:00:00Z</time>
      </trkpt>
      <trkpt lat="58.986069" lon="16.037886">
        <ele>69.8182</ele>
        <time>1970-01-01T01:00:00Z</time>
      </trkpt>
      <trkpt lat="58.98598" lon="16.037913">
        <ele>70.0909</ele>
        <time>1970-01-01T01:00:00Z</time>
      </trkpt>
      <trkpt lat="58.985893" lon="16.037936">
        <ele>70.3636</ele>
        <time>1970-01-01T01:00:00Z</time>
      </trkpt>
      <trkpt lat="58.985808" lon="16.037994">
        <ele>70.6364</ele>
        <time>1970-01-01T01:00:00Z</time>
      </trkpt>
      <trkpt lat="58.985729" lon="16.038032">
        <ele>70.8182</ele>
        <time>1970-01-01T01:00:00Z</time>
      </trkpt>
      <trkpt lat="58.985659" lon="16.038141">
        <ele>71</ele>
        <time>1970-01-01T01:00:00Z</time>
      </trkpt>
      <trkpt lat="58.985591" lon="16.038237">
        <ele>71.1818</ele>
        <time>1970-01-01T01:00:00Z</time>
      </trkpt>
      <trkpt lat="58.985523" lon="16.038324">
        <ele>71.1818</ele>
        <time>1970-01-01T01:00:00Z</time>
      </trkpt>
      <trkpt lat="58.985446" lon="16.038377">
        <ele>71.0909</ele>
        <time>1970-01-01T01:00:00Z</time>
      </trkpt>
      <trkpt lat="58.985376" lon="16.038462">
        <ele>70.8182</ele>
        <time>1970-01-01T01:00:00Z</time>
      </trkpt>
      <trkpt lat="58.9853" lon="16.038541">
        <ele>70.5455</ele>
        <time>1970-01-01T01:00:00Z</time>
      </trkpt>
      <trkpt lat="58.985219" lon="16.038591">
        <ele>70.2727</ele>
        <time>1970-01-01T01:00:00Z</time>
      </trkpt>
      <trkpt lat="58.985131" lon="16.038601">
        <ele>70.0909</ele>
        <time>1970-01-01T01:00:00Z</time>
      </trkpt>
      <trkpt lat="58.985043" lon="16.038573">
        <ele>69.9091</ele>
        <time>1970-01-01T01:00:00Z</time>
      </trkpt>
      <trkpt lat="58.985006" lon="16.038413">
        <ele>69.7273</ele>
        <time>1970-01-01T01:00:00Z</time>
      </trkpt>
      <trkpt lat="58.985005" lon="16.038252">
        <ele>69.5455</ele>
        <time>1970-01-01T01:00:00Z</time>
      </trkpt>
      <trkpt lat="58.984992" lon="16.038079">
        <ele>69.2727</ele>
        <time>1970-01-01T01:00:00Z</time>
      </trkpt>
      <trkpt lat="58.984986" lon="16.0379">
        <ele>69</ele>
        <time>1970-01-01T01:00:00Z</time>
      </trkpt>
      <trkpt lat="58.984999" lon="16.037711">
        <ele>68.8182</ele>
        <time>1970-01-01T01:00:00Z</time>
      </trkpt>
      <trkpt lat="58.985026" lon="16.037539">
        <ele>68.6364</ele>
        <time>1970-01-01T01:00:00Z</time>
      </trkpt>
      <trkpt lat="58.985043" lon="16.037368">
        <ele>68.5455</ele>
        <time>1970-01-01T01:00:00Z</time>
      </trkpt>
      <trkpt lat="58.985038" lon="16.037197">
        <ele>68.3636</ele>
        <time>1970-01-01T01:00:00Z</time>
      </trkpt>
      <trkpt lat="58.98505" lon="16.037029">
        <ele>68.2727</ele>
        <time>1970-01-01T01:00:00Z</time>
      </trkpt>
      <trkpt lat="58.985083" lon="16.036885">
        <ele>68.1818</ele>
        <time>1970-01-01T01:00:00Z</time>
      </trkpt>
      <trkpt lat="58.985081" lon="16.036726">
        <ele>68.0909</ele>
        <time>1970-01-01T01:00:00Z</time>
      </trkpt>
      <trkpt lat="58.985099" lon="16.036569">
        <ele>68.0909</ele>
        <time>1970-01-01T01:00:00Z</time>
      </trkpt>
      <trkpt lat="58.985094" lon="16.036378">
        <ele>68.0909</ele>
        <time>1970-01-01T01:00:00Z</time>
      </trkpt>
      <trkpt lat="58.985118" lon="16.0362">
        <ele>68.1818</ele>
        <time>1970-01-01T01:00:00Z</time>
      </trkpt>
      <trkpt lat="58.985144" lon="16.036049">
        <ele>68.1818</ele>
        <time>1970-01-01T01:00:00Z</time>
      </trkpt>
      <trkpt lat="58.985155" lon="16.035888">
        <ele>68.1818</ele>
        <time>1970-01-01T01:00:00Z</time>
      </trkpt>
      <trkpt lat="58.985191" lon="16.035724">
        <ele>68.1818</ele>
        <time>1970-01-01T01:00:00Z</time>
      </trkpt>
      <trkpt lat="58.985217" lon="16.035559">
        <ele>68.1818</ele>
        <time>1970-01-01T01:00:00Z</time>
      </trkpt>
      <trkpt lat="58.985235" lon="16.035405">
        <ele>68.2727</ele>
        <time>1970-01-01T01:00:00Z</time>
      </trkpt>
      <trkpt lat="58.985248" lon="16.035238">
        <ele>68.3636</ele>
        <time>1970-01-01T01:00:00Z</time>
      </trkpt>
      <trkpt lat="58.985275" lon="16.035077">
        <ele>68.4545</ele>
        <time>1970-01-01T01:00:00Z</time>
      </trkpt>
      <trkpt lat="58.985289" lon="16.034922">
        <ele>68.6364</ele>
        <time>1970-01-01T01:00:00Z</time>
      </trkpt>
      <trkpt lat="58.985315" lon="16.034764">
        <ele>68.7273</ele>
        <time>1970-01-01T01:00:00Z</time>
      </trkpt>
      <trkpt lat="58.985316" lon="16.034601">
        <ele>68.9091</ele>
        <time>1970-01-01T01:00:00Z</time>
      </trkpt>
      <trkpt lat="58.98533" lon="16.034433">
        <ele>69.1818</ele>
        <time>1970-01-01T01:00:00Z</time>
      </trkpt>
      <trkpt lat="58.985323" lon="16.034263">
        <ele>69.5455</ele>
        <time>1970-01-01T01:00:00Z</time>
      </trkpt>
      <trkpt lat="58.98532" lon="16.034093">
        <ele>70.0909</ele>
        <time>1970-01-01T01:00:00Z</time>
      </trkpt>
      <trkpt lat="58.985281" lon="16.033926">
        <ele>70.8182</ele>
        <time>1970-01-01T01:00:00Z</time>
      </trkpt>
      <trkpt lat="58.985246" lon="16.033777">
        <ele>71.7273</ele>
        <time>1970-01-01T01:00:00Z</time>
      </trkpt>
      <trkpt lat="58.985224" lon="16.033606">
        <ele>72.8182</ele>
        <time>1970-01-01T01:00:00Z</time>
      </trkpt>
      <trkpt lat="58.985207" lon="16.03343">
        <ele>73.9091</ele>
        <time>1970-01-01T01:00:00Z</time>
      </trkpt>
      <trkpt lat="58.985172" lon="16.033265">
        <ele>75.0909</ele>
        <time>1970-01-01T01:00:00Z</time>
      </trkpt>
      <trkpt lat="58.985165" lon="16.033086">
        <ele>76.2727</ele>
        <time>1970-01-01T01:00:00Z</time>
      </trkpt>
      <trkpt lat="58.985165" lon="16.032909">
        <ele>77.5455</ele>
        <time>1970-01-01T01:00:00Z</time>
      </trkpt>
      <trkpt lat="58.985191" lon="16.03273">
        <ele>78.7273</ele>
        <time>1970-01-01T01:00:00Z</time>
      </trkpt>
      <trkpt lat="58.985198" lon="16.032574">
        <ele>79.8182</ele>
        <time>1970-01-01T01:00:00Z</time>
      </trkpt>
      <trkpt lat="58.985186" lon="16.032396">
        <ele>80.9091</ele>
        <time>1970-01-01T01:00:00Z</time>
      </trkpt>
      <trkpt lat="58.98518" lon="16.032221">
        <ele>81.8182</ele>
        <time>1970-01-01T01:00:00Z</time>
      </trkpt>
      <trkpt lat="58.985193" lon="16.032059">
        <ele>82.5455</ele>
        <time>1970-01-01T01:00:00Z</time>
      </trkpt>
      <trkpt lat="58.985203" lon="16.03188">
        <ele>83.1818</ele>
        <time>1970-01-01T01:00:00Z</time>
      </trkpt>
      <trkpt lat="58.985193" lon="16.031715">
        <ele>83.6364</ele>
        <time>1970-01-01T01:00:00Z</time>
      </trkpt>
      <trkpt lat="58.98518" lon="16.031543">
        <ele>84</ele>
        <time>1970-01-01T01:00:00Z</time>
      </trkpt>
      <trkpt lat="58.985183" lon="16.031368">
        <ele>84.2727</ele>
        <time>1970-01-01T01:00:00Z</time>
      </trkpt>
      <trkpt lat="58.985191" lon="16.031199">
        <ele>84.3636</ele>
        <time>1970-01-01T01:00:00Z</time>
      </trkpt>
      <trkpt lat="58.985198" lon="16.031024">
        <ele>84.3636</ele>
        <time>1970-01-01T01:00:00Z</time>
      </trkpt>
      <trkpt lat="58.985191" lon="16.03086">
        <ele>84.3636</ele>
        <time>1970-01-01T01:00:00Z</time>
      </trkpt>
      <trkpt lat="58.985201" lon="16.030688">
        <ele>84.2727</ele>
        <time>1970-01-01T01:00:00Z</time>
      </trkpt>
      <trkpt lat="58.985206" lon="16.030512">
        <ele>84.0909</ele>
        <time>1970-01-01T01:00:00Z</time>
      </trkpt>
      <trkpt lat="58.985198" lon="16.030353">
        <ele>83.8182</ele>
        <time>1970-01-01T01:00:00Z</time>
      </trkpt>
      <trkpt lat="58.985197" lon="16.03018">
        <ele>83.4545</ele>
        <time>1970-01-01T01:00:00Z</time>
      </trkpt>
      <trkpt lat="58.985207" lon="16.030003">
        <ele>82.9091</ele>
        <time>1970-01-01T01:00:00Z</time>
      </trkpt>
      <trkpt lat="58.985211" lon="16.029833">
        <ele>82.2727</ele>
        <time>1970-01-01T01:00:00Z</time>
      </trkpt>
      <trkpt lat="58.985207" lon="16.029671">
        <ele>81.5455</ele>
        <time>1970-01-01T01:00:00Z</time>
      </trkpt>
      <trkpt lat="58.985203" lon="16.029497">
        <ele>80.6364</ele>
        <time>1970-01-01T01:00:00Z</time>
      </trkpt>
      <trkpt lat="58.98521" lon="16.029328">
        <ele>79.6364</ele>
        <time>1970-01-01T01:00:00Z</time>
      </trkpt>
      <trkpt lat="58.985239" lon="16.029177">
        <ele>78.5455</ele>
        <time>1970-01-01T01:00:00Z</time>
      </trkpt>
      <trkpt lat="58.98526" lon="16.029016">
        <ele>77.3636</ele>
        <time>1970-01-01T01:00:00Z</time>
      </trkpt>
      <trkpt lat="58.985265" lon="16.028848">
        <ele>76.2727</ele>
        <time>1970-01-01T01:00:00Z</time>
      </trkpt>
      <trkpt lat="58.985257" lon="16.028689">
        <ele>75.2727</ele>
        <time>1970-01-01T01:00:00Z</time>
      </trkpt>
      <trkpt lat="58.985277" lon="16.028515">
        <ele>74.3636</ele>
        <time>1970-01-01T01:00:00Z</time>
      </trkpt>
      <trkpt lat="58.985301" lon="16.02834">
        <ele>73.5455</ele>
        <time>1970-01-01T01:00:00Z</time>
      </trkpt>
      <trkpt lat="58.985342" lon="16.028187">
        <ele>72.9091</ele>
        <time>1970-01-01T01:00:00Z</time>
      </trkpt>
      <trkpt lat="58.985409" lon="16.028083">
        <ele>72.3636</ele>
        <time>1970-01-01T01:00:00Z</time>
      </trkpt>
      <trkpt lat="58.98548" lon="16.027973">
        <ele>71.9091</ele>
        <time>1970-01-01T01:00:00Z</time>
      </trkpt>
      <trkpt lat="58.985544" lon="16.027855">
        <ele>71.7273</ele>
        <time>1970-01-01T01:00:00Z</time>
      </trkpt>
      <trkpt lat="58.985607" lon="16.027749">
        <ele>71.7273</ele>
        <time>1970-01-01T01:00:00Z</time>
      </trkpt>
      <trkpt lat="58.985665" lon="16.027629">
        <ele>71.8182</ele>
        <time>1970-01-01T01:00:00Z</time>
      </trkpt>
      <trkpt lat="58.985715" lon="16.027479">
        <ele>72</ele>
        <time>1970-01-01T01:00:00Z</time>
      </trkpt>
      <trkpt lat="58.985781" lon="16.027351">
        <ele>72.1818</ele>
        <time>1970-01-01T01:00:00Z</time>
      </trkpt>
      <trkpt lat="58.985843" lon="16.027249">
        <ele>72.2727</ele>
        <time>1970-01-01T01:00:00Z</time>
      </trkpt>
      <trkpt lat="58.985884" lon="16.027099">
        <ele>72.3636</ele>
        <time>1970-01-01T01:00:00Z</time>
      </trkpt>
      <trkpt lat="58.985925" lon="16.026942">
        <ele>72.5455</ele>
        <time>1970-01-01T01:00:00Z</time>
      </trkpt>
      <trkpt lat="58.985963" lon="16.026803">
        <ele>72.6364</ele>
        <time>1970-01-01T01:00:00Z</time>
      </trkpt>
      <trkpt lat="58.986009" lon="16.026646">
        <ele>72.7273</ele>
        <time>1970-01-01T01:00:00Z</time>
      </trkpt>
      <trkpt lat="58.986031" lon="16.026487">
        <ele>72.8182</ele>
        <time>1970-01-01T01:00:00Z</time>
      </trkpt>
      <trkpt lat="58.986037" lon="16.026327">
        <ele>72.8182</ele>
        <time>1970-01-01T01:00:00Z</time>
      </trkpt>
      <trkpt lat="58.986095" lon="16.02619">
        <ele>72.8182</ele>
        <time>1970-01-01T01:00:00Z</time>
      </trkpt>
      <trkpt lat="58.986169" lon="16.026109">
        <ele>72.8182</ele>
        <time>1970-01-01T01:00:00Z</time>
      </trkpt>
      <trkpt lat="58.986228" lon="16.026">
        <ele>72.8182</ele>
        <time>1970-01-01T01:00:00Z</time>
      </trkpt>
      <trkpt lat="58.986278" lon="16.025875">
        <ele>72.8182</ele>
        <time>1970-01-01T01:00:00Z</time>
      </trkpt>
      <trkpt lat="58.986333" lon="16.025742">
        <ele>72.9091</ele>
        <time>1970-01-01T01:00:00Z</time>
      </trkpt>
      <trkpt lat="58.986397" lon="16.025623">
        <ele>73</ele>
        <time>1970-01-01T01:00:00Z</time>
      </trkpt>
      <trkpt lat="58.986447" lon="16.025477">
        <ele>73</ele>
        <time>1970-01-01T01:00:00Z</time>
      </trkpt>
      <trkpt lat="58.986495" lon="16.025346">
        <ele>73.0909</ele>
        <time>1970-01-01T01:00:00Z</time>
      </trkpt>
      <trkpt lat="58.986563" lon="16.025241">
        <ele>73.2727</ele>
        <time>1970-01-01T01:00:00Z</time>
      </trkpt>
      <trkpt lat="58.986626" lon="16.025141">
        <ele>73.4545</ele>
        <time>1970-01-01T01:00:00Z</time>
      </trkpt>
      <trkpt lat="58.986689" lon="16.025018">
        <ele>73.7273</ele>
        <time>1970-01-01T01:00:00Z</time>
      </trkpt>
      <trkpt lat="58.986758" lon="16.024906">
        <ele>74.0909</ele>
        <time>1970-01-01T01:00:00Z</time>
      </trkpt>
      <trkpt lat="58.986836" lon="16.024841">
        <ele>74.5455</ele>
        <time>1970-01-01T01:00:00Z</time>
      </trkpt>
      <trkpt lat="58.986911" lon="16.024784">
        <ele>75</ele>
        <time>1970-01-01T01:00:00Z</time>
      </trkpt>
      <trkpt lat="58.986977" lon="16.024682">
        <ele>75.5455</ele>
        <time>1970-01-01T01:00:00Z</time>
      </trkpt>
      <trkpt lat="58.987043" lon="16.024584">
        <ele>76.0909</ele>
        <time>1970-01-01T01:00:00Z</time>
      </trkpt>
      <trkpt lat="58.987122" lon="16.02455">
        <ele>76.7273</ele>
        <time>1970-01-01T01:00:00Z</time>
      </trkpt>
      <trkpt lat="58.987202" lon="16.024473">
        <ele>77.3636</ele>
        <time>1970-01-01T01:00:00Z</time>
      </trkpt>
      <trkpt lat="58.987274" lon="16.024392">
        <ele>77.9091</ele>
        <time>1970-01-01T01:00:00Z</time>
      </trkpt>
      <trkpt lat="58.987358" lon="16.024352">
        <ele>78.4545</ele>
        <time>1970-01-01T01:00:00Z</time>
      </trkpt>
      <trkpt lat="58.987445" lon="16.024324">
        <ele>79</ele>
        <time>1970-01-01T01:00:00Z</time>
      </trkpt>
      <trkpt lat="58.987527" lon="16.024279">
        <ele>79.5455</ele>
        <time>1970-01-01T01:00:00Z</time>
      </trkpt>
      <trkpt lat="58.987616" lon="16.024244">
        <ele>80</ele>
        <time>1970-01-01T01:00:00Z</time>
      </trkpt>
      <trkpt lat="58.987704" lon="16.024258">
        <ele>80.3636</ele>
        <time>1970-01-01T01:00:00Z</time>
      </trkpt>
      <trkpt lat="58.987791" lon="16.024242">
        <ele>80.7273</ele>
        <time>1970-01-01T01:00:00Z</time>
      </trkpt>
      <trkpt lat="58.987875" lon="16.024219">
        <ele>81</ele>
        <time>1970-01-01T01:00:00Z</time>
      </trkpt>
      <trkpt lat="58.987961" lon="16.02418">
        <ele>81.2727</ele>
        <time>1970-01-01T01:00:00Z</time>
      </trkpt>
      <trkpt lat="58.98804" lon="16.024148">
        <ele>81.4545</ele>
        <time>1970-01-01T01:00:00Z</time>
      </trkpt>
      <trkpt lat="58.988124" lon="16.024075">
        <ele>81.7273</ele>
        <time>1970-01-01T01:00:00Z</time>
      </trkpt>
      <trkpt lat="58.988206" lon="16.024004">
        <ele>82</ele>
        <time>1970-01-01T01:00:00Z</time>
      </trkpt>
      <trkpt lat="58.988289" lon="16.023949">
        <ele>82.1818</ele>
        <time>1970-01-01T01:00:00Z</time>
      </trkpt>
      <trkpt lat="58.988365" lon="16.023876">
        <ele>82.3636</ele>
        <time>1970-01-01T01:00:00Z</time>
      </trkpt>
      <trkpt lat="58.98844" lon="16.023789">
        <ele>82.3636</ele>
        <time>1970-01-01T01:00:00Z</time>
      </trkpt>
      <trkpt lat="58.98852" lon="16.023708">
        <ele>82.3636</ele>
        <time>1970-01-01T01:00:00Z</time>
      </trkpt>
      <trkpt lat="58.988602" lon="16.023655">
        <ele>82.3636</ele>
        <time>1970-01-01T01:00:00Z</time>
      </trkpt>
      <trkpt lat="58.988675" lon="16.023575">
        <ele>82.3636</ele>
        <time>1970-01-01T01:00:00Z</time>
      </trkpt>
      <trkpt lat="58.988747" lon="16.023487">
        <ele>82.2727</ele>
        <time>1970-01-01T01:00:00Z</time>
      </trkpt>
      <trkpt lat="58.988818" lon="16.023395">
        <ele>82.1818</ele>
        <time>1970-01-01T01:00:00Z</time>
      </trkpt>
      <trkpt lat="58.988888" lon="16.023302">
        <ele>82</ele>
        <time>1970-01-01T01:00:00Z</time>
      </trkpt>
      <trkpt lat="58.988953" lon="16.023191">
        <ele>81.6364</ele>
        <time>1970-01-01T01:00:00Z</time>
      </trkpt>
      <trkpt lat="58.989037" lon="16.023182">
        <ele>81.1818</ele>
        <time>1970-01-01T01:00:00Z</time>
      </trkpt>
      <trkpt lat="58.989125" lon="16.023194">
        <ele>80.7273</ele>
        <time>1970-01-01T01:00:00Z</time>
      </trkpt>
      <trkpt lat="58.989216" lon="16.023175">
        <ele>80.2727</ele>
        <time>1970-01-01T01:00:00Z</time>
      </trkpt>
      <trkpt lat="58.989301" lon="16.023183">
        <ele>79.9091</ele>
        <time>1970-01-01T01:00:00Z</time>
      </trkpt>
      <trkpt lat="58.989391" lon="16.023217">
        <ele>79.4545</ele>
        <time>1970-01-01T01:00:00Z</time>
      </trkpt>
      <trkpt lat="58.989481" lon="16.023278">
        <ele>79</ele>
        <time>1970-01-01T01:00:00Z</time>
      </trkpt>
      <trkpt lat="58.989564" lon="16.02333">
        <ele>78.4545</ele>
        <time>1970-01-01T01:00:00Z</time>
      </trkpt>
      <trkpt lat="58.989645" lon="16.023328">
        <ele>78.0909</ele>
        <time>1970-01-01T01:00:00Z</time>
      </trkpt>
      <trkpt lat="58.98973" lon="16.023397">
        <ele>77.7273</ele>
        <time>1970-01-01T01:00:00Z</time>
      </trkpt>
      <trkpt lat="58.989812" lon="16.023482">
        <ele>77.4545</ele>
        <time>1970-01-01T01:00:00Z</time>
      </trkpt>
      <trkpt lat="58.989896" lon="16.023523">
        <ele>77.2727</ele>
        <time>1970-01-01T01:00:00Z</time>
      </trkpt>
      <trkpt lat="58.989977" lon="16.023542">
        <ele>77.2727</ele>
        <time>1970-01-01T01:00:00Z</time>
      </trkpt>
      <trkpt lat="58.990062" lon="16.023537">
        <ele>77.2727</ele>
        <time>1970-01-01T01:00:00Z</time>
      </trkpt>
      <trkpt lat="58.990151" lon="16.023505">
        <ele>77.2727</ele>
        <time>1970-01-01T01:00:00Z</time>
      </trkpt>
      <trkpt lat="58.990234" lon="16.023486">
        <ele>77.3636</ele>
        <time>1970-01-01T01:00:00Z</time>
      </trkpt>
      <trkpt lat="58.990309" lon="16.023423">
        <ele>77.5455</ele>
        <time>1970-01-01T01:00:00Z</time>
      </trkpt>
      <trkpt lat="58.990392" lon="16.023394">
        <ele>77.7273</ele>
        <time>1970-01-01T01:00:00Z</time>
      </trkpt>
      <trkpt lat="58.990477" lon="16.02337">
        <ele>78</ele>
        <time>1970-01-01T01:00:00Z</time>
      </trkpt>
      <trkpt lat="58.990568" lon="16.023314">
        <ele>78.2727</ele>
        <time>1970-01-01T01:00:00Z</time>
      </trkpt>
      <trkpt lat="58.990654" lon="16.023245">
        <ele>78.5455</ele>
        <time>1970-01-01T01:00:00Z</time>
      </trkpt>
      <trkpt lat="58.990734" lon="16.023187">
        <ele>78.8182</ele>
        <time>1970-01-01T01:00:00Z</time>
      </trkpt>
      <trkpt lat="58.99082" lon="16.023153">
        <ele>79.0909</ele>
        <time>1970-01-01T01:00:00Z</time>
      </trkpt>
      <trkpt lat="58.990909" lon="16.02313">
        <ele>79.1818</ele>
        <time>1970-01-01T01:00:00Z</time>
      </trkpt>
      <trkpt lat="58.990988" lon="16.023067">
        <ele>79.2727</ele>
        <time>1970-01-01T01:00:00Z</time>
      </trkpt>
      <trkpt lat="58.99106" lon="16.022976">
        <ele>79.2727</ele>
        <time>1970-01-01T01:00:00Z</time>
      </trkpt>
      <trkpt lat="58.991145" lon="16.022922">
        <ele>79</ele>
        <time>1970-01-01T01:00:00Z</time>
      </trkpt>
      <trkpt lat="58.991231" lon="16.022885">
        <ele>78.6364</ele>
        <time>1970-01-01T01:00:00Z</time>
      </trkpt>
      <trkpt lat="58.991309" lon="16.022829">
        <ele>78.0909</ele>
        <time>1970-01-01T01:00:00Z</time>
      </trkpt>
      <trkpt lat="58.991396" lon="16.022779">
        <ele>77.3636</ele>
        <time>1970-01-01T01:00:00Z</time>
      </trkpt>
      <trkpt lat="58.991483" lon="16.02274">
        <ele>76.3636</ele>
        <time>1970-01-01T01:00:00Z</time>
      </trkpt>
      <trkpt lat="58.991571" lon="16.022752">
        <ele>75.1818</ele>
        <time>1970-01-01T01:00:00Z</time>
      </trkpt>
      <trkpt lat="58.991652" lon="16.022726">
        <ele>73.9091</ele>
        <time>1970-01-01T01:00:00Z</time>
      </trkpt>
      <trkpt lat="58.991736" lon="16.022676">
        <ele>72.5455</ele>
        <time>1970-01-01T01:00:00Z</time>
      </trkpt>
      <trkpt lat="58.991829" lon="16.022679">
        <ele>71.2727</ele>
        <time>1970-01-01T01:00:00Z</time>
      </trkpt>
      <trkpt lat="58.99191" lon="16.022732">
        <ele>70</ele>
        <time>1970-01-01T01:00:00Z</time>
      </trkpt>
      <trkpt lat="58.991995" lon="16.022779">
        <ele>68.8182</ele>
        <time>1970-01-01T01:00:00Z</time>
      </trkpt>
      <trkpt lat="58.992082" lon="16.022732">
        <ele>67.8182</ele>
        <time>1970-01-01T01:00:00Z</time>
      </trkpt>
      <trkpt lat="58.992159" lon="16.022644">
        <ele>67</ele>
        <time>1970-01-01T01:00:00Z</time>
      </trkpt>
      <trkpt lat="58.992227" lon="16.022525">
        <ele>66.3636</ele>
        <time>1970-01-01T01:00:00Z</time>
      </trkpt>
      <trkpt lat="58.992299" lon="16.022439">
        <ele>65.9091</ele>
        <time>1970-01-01T01:00:00Z</time>
      </trkpt>
      <trkpt lat="58.992375" lon="16.022345">
        <ele>65.6364</ele>
        <time>1970-01-01T01:00:00Z</time>
      </trkpt>
      <trkpt lat="58.992447" lon="16.022227">
        <ele>65.6364</ele>
        <time>1970-01-01T01:00:00Z</time>
      </trkpt>
      <trkpt lat="58.992504" lon="16.022097">
        <ele>65.6364</ele>
        <time>1970-01-01T01:00:00Z</time>
      </trkpt>
      <trkpt lat="58.992559" lon="16.021971">
        <ele>65.7273</ele>
        <time>1970-01-01T01:00:00Z</time>
      </trkpt>
      <trkpt lat="58.992628" lon="16.021868">
        <ele>65.7273</ele>
        <time>1970-01-01T01:00:00Z</time>
      </trkpt>
      <trkpt lat="58.992694" lon="16.021744">
        <ele>65.6364</ele>
        <time>1970-01-01T01:00:00Z</time>
      </trkpt>
      <trkpt lat="58.992749" lon="16.021616">
        <ele>65.5455</ele>
        <time>1970-01-01T01:00:00Z</time>
      </trkpt>
      <trkpt lat="58.992813" lon="16.021515">
        <ele>65.4545</ele>
        <time>1970-01-01T01:00:00Z</time>
      </trkpt>
      <trkpt lat="58.992884" lon="16.021411">
        <ele>65.2727</ele>
        <time>1970-01-01T01:00:00Z</time>
      </trkpt>
      <trkpt lat="58.992966" lon="16.021373">
        <ele>65</ele>
        <time>1970-01-01T01:00:00Z</time>
      </trkpt>
      <trkpt lat="58.993046" lon="16.021313">
        <ele>64.7273</ele>
        <time>1970-01-01T01:00:00Z</time>
      </trkpt>
      <trkpt lat="58.993121" lon="16.021242">
        <ele>64.4545</ele>
        <time>1970-01-01T01:00:00Z</time>
      </trkpt>
      <trkpt lat="58.993196" lon="16.021182">
        <ele>64.0909</ele>
        <time>1970-01-01T01:00:00Z</time>
      </trkpt>
      <trkpt lat="58.993268" lon="16.021094">
        <ele>63.8182</ele>
        <time>1970-01-01T01:00:00Z</time>
      </trkpt>
      <trkpt lat="58.993348" lon="16.021028">
        <ele>63.5455</ele>
        <time>1970-01-01T01:00:00Z</time>
      </trkpt>
      <trkpt lat="58.993426" lon="16.020941">
        <ele>63.2727</ele>
        <time>1970-01-01T01:00:00Z</time>
      </trkpt>
      <trkpt lat="58.993494" lon="16.020844">
        <ele>63.0909</ele>
        <time>1970-01-01T01:00:00Z</time>
      </trkpt>
      <trkpt lat="58.993572" lon="16.020802">
        <ele>62.9091</ele>
        <time>1970-01-01T01:00:00Z</time>
      </trkpt>
      <trkpt lat="58.993657" lon="16.020798">
        <ele>62.6364</ele>
        <time>1970-01-01T01:00:00Z</time>
      </trkpt>
      <trkpt lat="58.99373" lon="16.02072">
        <ele>62.3636</ele>
        <time>1970-01-01T01:00:00Z</time>
      </trkpt>
      <trkpt lat="58.993817" lon="16.020665">
        <ele>62.0909</ele>
        <time>1970-01-01T01:00:00Z</time>
      </trkpt>
      <trkpt lat="58.993904" lon="16.020625">
        <ele>61.8182</ele>
        <time>1970-01-01T01:00:00Z</time>
      </trkpt>
      <trkpt lat="58.993984" lon="16.02058">
        <ele>61.4545</ele>
        <time>1970-01-01T01:00:00Z</time>
      </trkpt>
      <trkpt lat="58.994069" lon="16.020564">
        <ele>61.0909</ele>
        <time>1970-01-01T01:00:00Z</time>
      </trkpt>
      <trkpt lat="58.994159" lon="16.020544">
        <ele>60.6364</ele>
        <time>1970-01-01T01:00:00Z</time>
      </trkpt>
      <trkpt lat="58.994243" lon="16.020607">
        <ele>60.0909</ele>
        <time>1970-01-01T01:00:00Z</time>
      </trkpt>
      <trkpt lat="58.994324" lon="16.02066">
        <ele>59.5455</ele>
        <time>1970-01-01T01:00:00Z</time>
      </trkpt>
      <trkpt lat="58.994397" lon="16.020758">
        <ele>59</ele>
        <time>1970-01-01T01:00:00Z</time>
      </trkpt>
      <trkpt lat="58.994469" lon="16.020867">
        <ele>58.4545</ele>
        <time>1970-01-01T01:00:00Z</time>
      </trkpt>
      <trkpt lat="58.994538" lon="16.020964">
        <ele>57.9091</ele>
        <time>1970-01-01T01:00:00Z</time>
      </trkpt>
      <trkpt lat="58.994605" lon="16.021084">
        <ele>57.3636</ele>
        <time>1970-01-01T01:00:00Z</time>
      </trkpt>
      <trkpt lat="58.994655" lon="16.021209">
        <ele>56.9091</ele>
        <time>1970-01-01T01:00:00Z</time>
      </trkpt>
      <trkpt lat="58.99472" lon="16.021314">
        <ele>56.4545</ele>
        <time>1970-01-01T01:00:00Z</time>
      </trkpt>
      <trkpt lat="58.99479" lon="16.021418">
        <ele>56.0909</ele>
        <time>1970-01-01T01:00:00Z</time>
      </trkpt>
      <trkpt lat="58.994848" lon="16.021536">
        <ele>55.7273</ele>
        <time>1970-01-01T01:00:00Z</time>
      </trkpt>
      <trkpt lat="58.994915" lon="16.021644">
        <ele>55.5455</ele>
        <time>1970-01-01T01:00:00Z</time>
      </trkpt>
      <trkpt lat="58.994986" lon="16.021753">
        <ele>55.5455</ele>
        <time>1970-01-01T01:00:00Z</time>
      </trkpt>
      <trkpt lat="58.995045" lon="16.021889">
        <ele>55.6364</ele>
        <time>1970-01-01T01:00:00Z</time>
      </trkpt>
      <trkpt lat="58.995108" lon="16.021998">
        <ele>55.8182</ele>
        <time>1970-01-01T01:00:00Z</time>
      </trkpt>
      <trkpt lat="58.995178" lon="16.022096">
        <ele>56.0909</ele>
        <time>1970-01-01T01:00:00Z</time>
      </trkpt>
      <trkpt lat="58.995239" lon="16.02223">
        <ele>56.5455</ele>
        <time>1970-01-01T01:00:00Z</time>
      </trkpt>
      <trkpt lat="58.995311" lon="16.022343">
        <ele>57</ele>
        <time>1970-01-01T01:00:00Z</time>
      </trkpt>
      <trkpt lat="58.995393" lon="16.022435">
        <ele>57.5455</ele>
        <time>1970-01-01T01:00:00Z</time>
      </trkpt>
      <trkpt lat="58.995465" lon="16.022554">
        <ele>58.1818</ele>
        <time>1970-01-01T01:00:00Z</time>
      </trkpt>
      <trkpt lat="58.995536" lon="16.02265">
        <ele>58.9091</ele>
        <time>1970-01-01T01:00:00Z</time>
      </trkpt>
      <trkpt lat="58.995596" lon="16.022768">
        <ele>59.7273</ele>
        <time>1970-01-01T01:00:00Z</time>
      </trkpt>
      <trkpt lat="58.995663" lon="16.022861">
        <ele>60.4545</ele>
        <time>1970-01-01T01:00:00Z</time>
      </trkpt>
      <trkpt lat="58.995726" lon="16.022985">
        <ele>61.1818</ele>
        <time>1970-01-01T01:00:00Z</time>
      </trkpt>
      <trkpt lat="58.99578" lon="16.023109">
        <ele>61.9091</ele>
        <time>1970-01-01T01:00:00Z</time>
      </trkpt>
      <trkpt lat="58.995846" lon="16.023212">
        <ele>62.6364</ele>
        <time>1970-01-01T01:00:00Z</time>
      </trkpt>
      <trkpt lat="58.995905" lon="16.023329">
        <ele>63.3636</ele>
        <time>1970-01-01T01:00:00Z</time>
      </trkpt>
      <trkpt lat="58.995969" lon="16.023461">
        <ele>64</ele>
        <time>1970-01-01T01:00:00Z</time>
      </trkpt>
      <trkpt lat="58.996038" lon="16.023554">
        <ele>64.6364</ele>
        <time>1970-01-01T01:00:00Z</time>
      </trkpt>
      <trkpt lat="58.996105" lon="16.023664">
        <ele>65.0909</ele>
        <time>1970-01-01T01:00:00Z</time>
      </trkpt>
      <trkpt lat="58.996166" lon="16.02379">
        <ele>65.3636</ele>
        <time>1970-01-01T01:00:00Z</time>
      </trkpt>
      <trkpt lat="58.99624" lon="16.02389">
        <ele>65.4545</ele>
        <time>1970-01-01T01:00:00Z</time>
      </trkpt>
      <trkpt lat="58.996315" lon="16.023966">
        <ele>65.3636</ele>
        <time>1970-01-01T01:00:00Z</time>
      </trkpt>
      <trkpt lat="58.996389" lon="16.024046">
        <ele>65.2727</ele>
        <time>1970-01-01T01:00:00Z</time>
      </trkpt>
      <trkpt lat="58.996439" lon="16.023898">
        <ele>65</ele>
        <time>1970-01-01T01:00:00Z</time>
      </trkpt>
      <trkpt lat="58.99646" lon="16.023724">
        <ele>64.7273</ele>
        <time>1970-01-01T01:00:00Z</time>
      </trkpt>
      <trkpt lat="58.996488" lon="16.023575">
        <ele>64.3636</ele>
        <time>1970-01-01T01:00:00Z</time>
      </trkpt>
      <trkpt lat="58.996504" lon="16.023405">
        <ele>63.8182</ele>
        <time>1970-01-01T01:00:00Z</time>
      </trkpt>
      <trkpt lat="58.996533" lon="16.023242">
        <ele>63.2727</ele>
        <time>1970-01-01T01:00:00Z</time>
      </trkpt>
      <trkpt lat="58.996556" lon="16.023082">
        <ele>62.7273</ele>
        <time>1970-01-01T01:00:00Z</time>
      </trkpt>
      <trkpt lat="58.996586" lon="16.022934">
        <ele>62.2727</ele>
        <time>1970-01-01T01:00:00Z</time>
      </trkpt>
      <trkpt lat="58.996625" lon="16.022793">
        <ele>61.8182</ele>
        <time>1970-01-01T01:00:00Z</time>
      </trkpt>
      <trkpt lat="58.99666" lon="16.02263">
        <ele>61.4545</ele>
        <time>1970-01-01T01:00:00Z</time>
      </trkpt>
      <trkpt lat="58.996702" lon="16.022468">
        <ele>61.1818</ele>
        <time>1970-01-01T01:00:00Z</time>
      </trkpt>
      <trkpt lat="58.996739" lon="16.022315">
        <ele>60.8182</ele>
        <time>1970-01-01T01:00:00Z</time>
      </trkpt>
      <trkpt lat="58.996763" lon="16.022162">
        <ele>60.5455</ele>
        <time>1970-01-01T01:00:00Z</time>
      </trkpt>
      <trkpt lat="58.996805" lon="16.022018">
        <ele>60.2727</ele>
        <time>1970-01-01T01:00:00Z</time>
      </trkpt>
      <trkpt lat="58.996853" lon="16.021874">
        <ele>60</ele>
        <time>1970-01-01T01:00:00Z</time>
      </trkpt>
      <trkpt lat="58.996896" lon="16.021718">
        <ele>59.7273</ele>
        <time>1970-01-01T01:00:00Z</time>
      </trkpt>
      <trkpt lat="58.99692" lon="16.021556">
        <ele>59.4545</ele>
        <time>1970-01-01T01:00:00Z</time>
      </trkpt>
      <trkpt lat="58.996961" lon="16.021402">
        <ele>59.2727</ele>
        <time>1970-01-01T01:00:00Z</time>
      </trkpt>
      <trkpt lat="58.997002" lon="16.021251">
        <ele>59.0909</ele>
        <time>1970-01-01T01:00:00Z</time>
      </trkpt>
      <trkpt lat="58.997029" lon="16.021095">
        <ele>58.9091</ele>
        <time>1970-01-01T01:00:00Z</time>
      </trkpt>
      <trkpt lat="58.997058" lon="16.020947">
        <ele>58.7273</ele>
        <time>1970-01-01T01:00:00Z</time>
      </trkpt>
      <trkpt lat="58.997114" lon="16.020806">
        <ele>58.5455</ele>
        <time>1970-01-01T01:00:00Z</time>
      </trkpt>
      <trkpt lat="58.997158" lon="16.020654">
        <ele>58.4545</ele>
        <time>1970-01-01T01:00:00Z</time>
      </trkpt>
      <trkpt lat="58.997201" lon="16.020497">
        <ele>58.3636</ele>
        <time>1970-01-01T01:00:00Z</time>
      </trkpt>
      <trkpt lat="58.997235" lon="16.020353">
        <ele>58.2727</ele>
        <time>1970-01-01T01:00:00Z</time>
      </trkpt>
      <trkpt lat="58.997265" lon="16.020194">
        <ele>58.1818</ele>
        <time>1970-01-01T01:00:00Z</time>
      </trkpt>
      <trkpt lat="58.997311" lon="16.020057">
        <ele>58.0909</ele>
        <time>1970-01-01T01:00:00Z</time>
      </trkpt>
      <trkpt lat="58.997343" lon="16.019883">
        <ele>58</ele>
        <time>1970-01-01T01:00:00Z</time>
      </trkpt>
      <trkpt lat="58.99738" lon="16.019733">
        <ele>57.9091</ele>
        <time>1970-01-01T01:00:00Z</time>
      </trkpt>
      <trkpt lat="58.997429" lon="16.019577">
        <ele>57.7273</ele>
        <time>1970-01-01T01:00:00Z</time>
      </trkpt>
      <trkpt lat="58.99746" lon="16.019408">
        <ele>57.5455</ele>
        <time>1970-01-01T01:00:00Z</time>
      </trkpt>
      <trkpt lat="58.997481" lon="16.019241">
        <ele>57.3636</ele>
        <time>1970-01-01T01:00:00Z</time>
      </trkpt>
      <trkpt lat="58.997523" lon="16.019101">
        <ele>57.0909</ele>
        <time>1970-01-01T01:00:00Z</time>
      </trkpt>
      <trkpt lat="58.99755" lon="16.01894">
        <ele>56.7273</ele>
        <time>1970-01-01T01:00:00Z</time>
      </trkpt>
      <trkpt lat="58.997542" lon="16.018764">
        <ele>56.2727</ele>
        <time>1970-01-01T01:00:00Z</time>
      </trkpt>
      <trkpt lat="58.997535" lon="16.018602">
        <ele>55.8182</ele>
        <time>1970-01-01T01:00:00Z</time>
      </trkpt>
      <trkpt lat="58.997519" lon="16.018448">
        <ele>55.3636</ele>
        <time>1970-01-01T01:00:00Z</time>
      </trkpt>
      <trkpt lat="58.997464" lon="16.018303">
        <ele>55</ele>
        <time>1970-01-01T01:00:00Z</time>
      </trkpt>
      <trkpt lat="58.99742" lon="16.018146">
        <ele>54.6364</ele>
        <time>1970-01-01T01:00:00Z</time>
      </trkpt>
      <trkpt lat="58.997378" lon="16.018011">
        <ele>54.1818</ele>
        <time>1970-01-01T01:00:00Z</time>
      </trkpt>
      <trkpt lat="58.997307" lon="16.017933">
        <ele>53.8182</ele>
        <time>1970-01-01T01:00:00Z</time>
      </trkpt>
      <trkpt lat="58.997229" lon="16.017871">
        <ele>53.5455</ele>
        <time>1970-01-01T01:00:00Z</time>
      </trkpt>
      <trkpt lat="58.99715" lon="16.01782">
        <ele>53.3636</ele>
        <time>1970-01-01T01:00:00Z</time>
      </trkpt>
      <trkpt lat="58.997062" lon="16.017803">
        <ele>53.2727</ele>
        <time>1970-01-01T01:00:00Z</time>
      </trkpt>
      <trkpt lat="58.996981" lon="16.017769">
        <ele>53.2727</ele>
        <time>1970-01-01T01:00:00Z</time>
      </trkpt>
      <trkpt lat="58.996898" lon="16.017749">
        <ele>53.4545</ele>
        <time>1970-01-01T01:00:00Z</time>
      </trkpt>
      <trkpt lat="58.996825" lon="16.01768">
        <ele>53.6364</ele>
        <time>1970-01-01T01:00:00Z</time>
      </trkpt>
      <trkpt lat="58.996748" lon="16.017601">
        <ele>53.9091</ele>
        <time>1970-01-01T01:00:00Z</time>
      </trkpt>
      <trkpt lat="58.996672" lon="16.017529">
        <ele>54.2727</ele>
        <time>1970-01-01T01:00:00Z</time>
      </trkpt>
      <trkpt lat="58.996609" lon="16.017419">
        <ele>54.6364</ele>
        <time>1970-01-01T01:00:00Z</time>
      </trkpt>
      <trkpt lat="58.996544" lon="16.017297">
        <ele>55</ele>
        <time>1970-01-01T01:00:00Z</time>
      </trkpt>
      <trkpt lat="58.996506" lon="16.01715">
        <ele>55.3636</ele>
        <time>1970-01-01T01:00:00Z</time>
      </trkpt>
      <trkpt lat="58.996454" lon="16.017007">
        <ele>55.8182</ele>
        <time>1970-01-01T01:00:00Z</time>
      </trkpt>
      <trkpt lat="58.996396" lon="16.016883">
        <ele>56.1818</ele>
        <time>1970-01-01T01:00:00Z</time>
      </trkpt>
      <trkpt lat="58.996347" lon="16.016729">
        <ele>56.5455</ele>
        <time>1970-01-01T01:00:00Z</time>
      </trkpt>
      <trkpt lat="58.99631" lon="16.01658">
        <ele>56.9091</ele>
        <time>1970-01-01T01:00:00Z</time>
      </trkpt>
      <trkpt lat="58.996274" lon="16.016429">
        <ele>57.1818</ele>
        <time>1970-01-01T01:00:00Z</time>
      </trkpt>
      <trkpt lat="58.996248" lon="16.016273">
        <ele>57.4545</ele>
        <time>1970-01-01T01:00:00Z</time>
      </trkpt>
      <trkpt lat="58.99621" lon="16.016128">
        <ele>57.7273</ele>
        <time>1970-01-01T01:00:00Z</time>
      </trkpt>
      <trkpt lat="58.996156" lon="16.015991">
        <ele>58</ele>
        <time>1970-01-01T01:00:00Z</time>
      </trkpt>
      <trkpt lat="58.996103" lon="16.015868">
        <ele>58.2727</ele>
        <time>1970-01-01T01:00:00Z</time>
      </trkpt>
      <trkpt lat="58.99605" lon="16.015719">
        <ele>58.5455</ele>
        <time>1970-01-01T01:00:00Z</time>
      </trkpt>
      <trkpt lat="58.996019" lon="16.015567">
        <ele>58.9091</ele>
        <time>1970-01-01T01:00:00Z</time>
      </trkpt>
      <trkpt lat="58.995989" lon="16.015411">
        <ele>59.1818</ele>
        <time>1970-01-01T01:00:00Z</time>
      </trkpt>
      <trkpt lat="58.995959" lon="16.015248">
        <ele>59.4545</ele>
        <time>1970-01-01T01:00:00Z</time>
      </trkpt>
      <trkpt lat="58.995901" lon="16.015137">
        <ele>59.7273</ele>
        <time>1970-01-01T01:00:00Z</time>
      </trkpt>
      <trkpt lat="58.995889" lon="16.014961">
        <ele>60</ele>
        <time>1970-01-01T01:00:00Z</time>
      </trkpt>
      <trkpt lat="58.995887" lon="16.014803">
        <ele>60.2727</ele>
        <time>1970-01-01T01:00:00Z</time>
      </trkpt>
      <trkpt lat="58.995918" lon="16.014634">
        <ele>60.6364</ele>
        <time>1970-01-01T01:00:00Z</time>
      </trkpt>
      <trkpt lat="58.995943" lon="16.014483">
        <ele>60.9091</ele>
        <time>1970-01-01T01:00:00Z</time>
      </trkpt>
      <trkpt lat="58.995988" lon="16.014324">
        <ele>61.0909</ele>
        <time>1970-01-01T01:00:00Z</time>
      </trkpt>
      <trkpt lat="58.996" lon="16.01415">
        <ele>61.3636</ele>
        <time>1970-01-01T01:00:00Z</time>
      </trkpt>
      <trkpt lat="58.996032" lon="16.013989">
        <ele>61.6364</ele>
        <time>1970-01-01T01:00:00Z</time>
      </trkpt>
      <trkpt lat="58.996069" lon="16.013831">
        <ele>61.9091</ele>
        <time>1970-01-01T01:00:00Z</time>
      </trkpt>
      <trkpt lat="58.996127" lon="16.013718">
        <ele>62.1818</ele>
        <time>1970-01-01T01:00:00Z</time>
      </trkpt>
      <trkpt lat="58.996176" lon="16.013578">
        <ele>62.4545</ele>
        <time>1970-01-01T01:00:00Z</time>
      </trkpt>
      <trkpt lat="58.99621" lon="16.013419">
        <ele>62.8182</ele>
        <time>1970-01-01T01:00:00Z</time>
      </trkpt>
      <trkpt lat="58.996252" lon="16.013261">
        <ele>63.1818</ele>
        <time>1970-01-01T01:00:00Z</time>
      </trkpt>
      <trkpt lat="58.996274" lon="16.013084">
        <ele>63.5455</ele>
        <time>1970-01-01T01:00:00Z</time>
      </trkpt>
      <trkpt lat="58.996308" lon="16.012921">
        <ele>63.9091</ele>
        <time>1970-01-01T01:00:00Z</time>
      </trkpt>
      <trkpt lat="58.996318" lon="16.012749">
        <ele>64.3636</ele>
        <time>1970-01-01T01:00:00Z</time>
      </trkpt>
      <trkpt lat="58.996339" lon="16.012588">
        <ele>64.8182</ele>
        <time>1970-01-01T01:00:00Z</time>
      </trkpt>
      <trkpt lat="58.996347" lon="16.012424">
        <ele>65.2727</ele>
        <time>1970-01-01T01:00:00Z</time>
      </trkpt>
      <trkpt lat="58.996357" lon="16.012246">
        <ele>65.8182</ele>
        <time>1970-01-01T01:00:00Z</time>
      </trkpt>
      <trkpt lat="58.996364" lon="16.012067">
        <ele>66.2727</ele>
        <time>1970-01-01T01:00:00Z</time>
      </trkpt>
      <trkpt lat="58.996361" lon="16.011897">
        <ele>66.7273</ele>
        <time>1970-01-01T01:00:00Z</time>
      </trkpt>
      <trkpt lat="58.996371" lon="16.011721">
        <ele>67.1818</ele>
        <time>1970-01-01T01:00:00Z</time>
      </trkpt>
      <trkpt lat="58.996386" lon="16.011557">
        <ele>67.5455</ele>
        <time>1970-01-01T01:00:00Z</time>
      </trkpt>
      <trkpt lat="58.996411" lon="16.011403">
        <ele>67.9091</ele>
        <time>1970-01-01T01:00:00Z</time>
      </trkpt>
      <trkpt lat="58.996431" lon="16.011241">
        <ele>68.3636</ele>
        <time>1970-01-01T01:00:00Z</time>
      </trkpt>
      <trkpt lat="58.996463" lon="16.011074">
        <ele>68.7273</ele>
        <time>1970-01-01T01:00:00Z</time>
      </trkpt>
      <trkpt lat="58.996485" lon="16.010907">
        <ele>69</ele>
        <time>1970-01-01T01:00:00Z</time>
      </trkpt>
      <trkpt lat="58.99651" lon="16.010745">
        <ele>69.2727</ele>
        <time>1970-01-01T01:00:00Z</time>
      </trkpt>
      <trkpt lat="58.996441" lon="16.010632">
        <ele>69.4545</ele>
        <time>1970-01-01T01:00:00Z</time>
      </trkpt>
      <trkpt lat="58.996393" lon="16.010487">
        <ele>69.6364</ele>
        <time>1970-01-01T01:00:00Z</time>
      </trkpt>
      <trkpt lat="58.996355" lon="16.010335">
        <ele>69.8182</ele>
        <time>1970-01-01T01:00:00Z</time>
      </trkpt>
      <trkpt lat="58.996289" lon="16.010237">
        <ele>70</ele>
        <time>1970-01-01T01:00:00Z</time>
      </trkpt>
      <trkpt lat="58.996246" lon="16.010102">
        <ele>70.2727</ele>
        <time>1970-01-01T01:00:00Z</time>
      </trkpt>
      <trkpt lat="58.996217" lon="16.009947">
        <ele>70.5455</ele>
        <time>1970-01-01T01:00:00Z</time>
      </trkpt>
      <trkpt lat="58.996172" lon="16.009812">
        <ele>70.8182</ele>
        <time>1970-01-01T01:00:00Z</time>
      </trkpt>
      <trkpt lat="58.996148" lon="16.009651">
        <ele>71.0909</ele>
        <time>1970-01-01T01:00:00Z</time>
      </trkpt>
      <trkpt lat="58.996088" lon="16.009528">
        <ele>71.3636</ele>
        <time>1970-01-01T01:00:00Z</time>
      </trkpt>
      <trkpt lat="58.996025" lon="16.009413">
        <ele>71.6364</ele>
        <time>1970-01-01T01:00:00Z</time>
      </trkpt>
      <trkpt lat="58.995973" lon="16.009266">
        <ele>72</ele>
        <time>1970-01-01T01:00:00Z</time>
      </trkpt>
      <trkpt lat="58.995912" lon="16.009154">
        <ele>72.3636</ele>
        <time>1970-01-01T01:00:00Z</time>
      </trkpt>
      <trkpt lat="58.995829" lon="16.009089">
        <ele>72.6364</ele>
        <time>1970-01-01T01:00:00Z</time>
      </trkpt>
      <trkpt lat="58.995748" lon="16.009007">
        <ele>72.9091</ele>
        <time>1970-01-01T01:00:00Z</time>
      </trkpt>
      <trkpt lat="58.995666" lon="16.008926">
        <ele>73.0909</ele>
        <time>1970-01-01T01:00:00Z</time>
      </trkpt>
      <trkpt lat="58.995587" lon="16.008859">
        <ele>73.1818</ele>
        <time>1970-01-01T01:00:00Z</time>
      </trkpt>
      <trkpt lat="58.995511" lon="16.008777">
        <ele>73.2727</ele>
        <time>1970-01-01T01:00:00Z</time>
      </trkpt>
      <trkpt lat="58.995442" lon="16.008692">
        <ele>73.3636</ele>
        <time>1970-01-01T01:00:00Z</time>
      </trkpt>
      <trkpt lat="58.995371" lon="16.008596">
        <ele>73.2727</ele>
        <time>1970-01-01T01:00:00Z</time>
      </trkpt>
      <trkpt lat="58.995307" lon="16.008496">
        <ele>73.1818</ele>
        <time>1970-01-01T01:00:00Z</time>
      </trkpt>
      <trkpt lat="58.995251" lon="16.008359">
        <ele>73</ele>
        <time>1970-01-01T01:00:00Z</time>
      </trkpt>
      <trkpt lat="58.995187" lon="16.00825">
        <ele>72.7273</ele>
        <time>1970-01-01T01:00:00Z</time>
      </trkpt>
      <trkpt lat="58.995118" lon="16.008139">
        <ele>72.3636</ele>
        <time>1970-01-01T01:00:00Z</time>
      </trkpt>
      <trkpt lat="58.995051" lon="16.008045">
        <ele>72</ele>
        <time>1970-01-01T01:00:00Z</time>
      </trkpt>
      <trkpt lat="58.994967" lon="16.007968">
        <ele>71.6364</ele>
        <time>1970-01-01T01:00:00Z</time>
      </trkpt>
      <trkpt lat="58.994888" lon="16.007907">
        <ele>71.3636</ele>
        <time>1970-01-01T01:00:00Z</time>
      </trkpt>
      <trkpt lat="58.994807" lon="16.007879">
        <ele>71.0909</ele>
        <time>1970-01-01T01:00:00Z</time>
      </trkpt>
      <trkpt lat="58.994724" lon="16.00785">
        <ele>70.9091</ele>
        <time>1970-01-01T01:00:00Z</time>
      </trkpt>
      <trkpt lat="58.994645" lon="16.007807">
        <ele>70.8182</ele>
        <time>1970-01-01T01:00:00Z</time>
      </trkpt>
      <trkpt lat="58.994558" lon="16.007794">
        <ele>70.8182</ele>
        <time>1970-01-01T01:00:00Z</time>
      </trkpt>
      <trkpt lat="58.994473" lon="16.007799">
        <ele>70.9091</ele>
        <time>1970-01-01T01:00:00Z</time>
      </trkpt>
      <trkpt lat="58.994386" lon="16.007779">
        <ele>71.1818</ele>
        <time>1970-01-01T01:00:00Z</time>
      </trkpt>
      <trkpt lat="58.994296" lon="16.007745">
        <ele>71.6364</ele>
        <time>1970-01-01T01:00:00Z</time>
      </trkpt>
      <trkpt lat="58.994222" lon="16.007659">
        <ele>72.2727</ele>
        <time>1970-01-01T01:00:00Z</time>
      </trkpt>
      <trkpt lat="58.994168" lon="16.007523">
        <ele>72.9091</ele>
        <time>1970-01-01T01:00:00Z</time>
      </trkpt>
      <trkpt lat="58.994105" lon="16.007415">
        <ele>73.5455</ele>
        <time>1970-01-01T01:00:00Z</time>
      </trkpt>
      <trkpt lat="58.994037" lon="16.007317">
        <ele>74.2727</ele>
        <time>1970-01-01T01:00:00Z</time>
      </trkpt>
      <trkpt lat="58.99396" lon="16.007237">
        <ele>75.0909</ele>
        <time>1970-01-01T01:00:00Z</time>
      </trkpt>
      <trkpt lat="58.993882" lon="16.007145">
        <ele>75.8182</ele>
        <time>1970-01-01T01:00:00Z</time>
      </trkpt>
      <trkpt lat="58.993826" lon="16.006989">
        <ele>76.3636</ele>
        <time>1970-01-01T01:00:00Z</time>
      </trkpt>
      <trkpt lat="58.993778" lon="16.00683">
        <ele>76.9091</ele>
        <time>1970-01-01T01:00:00Z</time>
      </trkpt>
      <trkpt lat="58.993719" lon="16.006684">
        <ele>77.3636</ele>
        <time>1970-01-01T01:00:00Z</time>
      </trkpt>
      <trkpt lat="58.993676" lon="16.00654">
        <ele>77.7273</ele>
        <time>1970-01-01T01:00:00Z</time>
      </trkpt>
      <trkpt lat="58.99366" lon="16.006384">
        <ele>77.9091</ele>
        <time>1970-01-01T01:00:00Z</time>
      </trkpt>
      <trkpt lat="58.993671" lon="16.006225">
        <ele>78.0909</ele>
        <time>1970-01-01T01:00:00Z</time>
      </trkpt>
      <trkpt lat="58.993678" lon="16.006059">
        <ele>78.2727</ele>
        <time>1970-01-01T01:00:00Z</time>
      </trkpt>
      <trkpt lat="58.993656" lon="16.005907">
        <ele>78.4545</ele>
        <time>1970-01-01T01:00:00Z</time>
      </trkpt>
      <trkpt lat="58.993643" lon="16.00574">
        <ele>78.5455</ele>
        <time>1970-01-01T01:00:00Z</time>
      </trkpt>
      <trkpt lat="58.993607" lon="16.005582">
        <ele>78.5455</ele>
        <time>1970-01-01T01:00:00Z</time>
      </trkpt>
      <trkpt lat="58.993561" lon="16.005444">
        <ele>78.5455</ele>
        <time>1970-01-01T01:00:00Z</time>
      </trkpt>
      <trkpt lat="58.993507" lon="16.005307">
        <ele>78.7273</ele>
        <time>1970-01-01T01:00:00Z</time>
      </trkpt>
      <trkpt lat="58.993498" lon="16.005146">
        <ele>78.9091</ele>
        <time>1970-01-01T01:00:00Z</time>
      </trkpt>
      <trkpt lat="58.99348" lon="16.004979">
        <ele>79</ele>
        <time>1970-01-01T01:00:00Z</time>
      </trkpt>
      <trkpt lat="58.993428" lon="16.004849">
        <ele>79.0909</ele>
        <time>1970-01-01T01:00:00Z</time>
      </trkpt>
      <trkpt lat="58.993369" lon="16.004732">
        <ele>79.0909</ele>
        <time>1970-01-01T01:00:00Z</time>
      </trkpt>
      <trkpt lat="58.993312" lon="16.004606">
        <ele>79</ele>
        <time>1970-01-01T01:00:00Z</time>
      </trkpt>
      <trkpt lat="58.99329" lon="16.004447">
        <ele>78.9091</ele>
        <time>1970-01-01T01:00:00Z</time>
      </trkpt>
      <trkpt lat="58.993262" lon="16.004294">
        <ele>78.7273</ele>
        <time>1970-01-01T01:00:00Z</time>
      </trkpt>
      <trkpt lat="58.993232" lon="16.004135">
        <ele>78.4545</ele>
        <time>1970-01-01T01:00:00Z</time>
      </trkpt>
      <trkpt lat="58.993213" lon="16.003979">
        <ele>78.1818</ele>
        <time>1970-01-01T01:00:00Z</time>
      </trkpt>
      <trkpt lat="58.993171" lon="16.003822">
        <ele>77.8182</ele>
        <time>1970-01-01T01:00:00Z</time>
      </trkpt>
      <trkpt lat="58.993128" lon="16.003683">
        <ele>77.2727</ele>
        <time>1970-01-01T01:00:00Z</time>
      </trkpt>
      <trkpt lat="58.9931" lon="16.003533">
        <ele>76.7273</ele>
        <time>1970-01-01T01:00:00Z</time>
      </trkpt>
      <trkpt lat="58.993068" lon="16.003385">
        <ele>76.3636</ele>
        <time>1970-01-01T01:00:00Z</time>
      </trkpt>
      <trkpt lat="58.993059" lon="16.00322">
        <ele>76</ele>
        <time>1970-01-01T01:00:00Z</time>
      </trkpt>
      <trkpt lat="58.99307" lon="16.003057">
        <ele>75.8182</ele>
        <time>1970-01-01T01:00:00Z</time>
      </trkpt>
      <trkpt lat="58.993047" lon="16.0029">
        <ele>75.7273</ele>
        <time>1970-01-01T01:00:00Z</time>
      </trkpt>
      <trkpt lat="58.993041" lon="16.002728">
        <ele>75.7273</ele>
        <time>1970-01-01T01:00:00Z</time>
      </trkpt>
      <trkpt lat="58.993049" lon="16.002561">
        <ele>75.8182</ele>
        <time>1970-01-01T01:00:00Z</time>
      </trkpt>
      <trkpt lat="58.993003" lon="16.00241">
        <ele>76.0909</ele>
        <time>1970-01-01T01:00:00Z</time>
      </trkpt>
      <trkpt lat="58.992943" lon="16.002261">
        <ele>76.4545</ele>
        <time>1970-01-01T01:00:00Z</time>
      </trkpt>
      <trkpt lat="58.992903" lon="16.002116">
        <ele>77</ele>
        <time>1970-01-01T01:00:00Z</time>
      </trkpt>
      <trkpt lat="58.992853" lon="16.001987">
        <ele>77.7273</ele>
        <time>1970-01-01T01:00:00Z</time>
      </trkpt>
      <trkpt lat="58.992783" lon="16.001878">
        <ele>78.4545</ele>
        <time>1970-01-01T01:00:00Z</time>
      </trkpt>
      <trkpt lat="58.99275" lon="16.001712">
        <ele>79.1818</ele>
        <time>1970-01-01T01:00:00Z</time>
      </trkpt>
      <trkpt lat="58.992704" lon="16.001568">
        <ele>79.9091</ele>
        <time>1970-01-01T01:00:00Z</time>
      </trkpt>
      <trkpt lat="58.992635" lon="16.00144">
        <ele>80.5455</ele>
        <time>1970-01-01T01:00:00Z</time>
      </trkpt>
      <trkpt lat="58.992567" lon="16.00135">
        <ele>81.0909</ele>
        <time>1970-01-01T01:00:00Z</time>
      </trkpt>
      <trkpt lat="58.992483" lon="16.001337">
        <ele>81.4545</ele>
        <time>1970-01-01T01:00:00Z</time>
      </trkpt>
      <trkpt lat="58.992409" lon="16.001269">
        <ele>81.9091</ele>
        <time>1970-01-01T01:00:00Z</time>
      </trkpt>
      <trkpt lat="58.992325" lon="16.001188">
        <ele>82.2727</ele>
        <time>1970-01-01T01:00:00Z</time>
      </trkpt>
      <trkpt lat="58.99224" lon="16.001143">
        <ele>82.5455</ele>
        <time>1970-01-01T01:00:00Z</time>
      </trkpt>
      <trkpt lat="58.992161" lon="16.001062">
        <ele>82.7273</ele>
        <time>1970-01-01T01:00:00Z</time>
      </trkpt>
      <trkpt lat="58.992078" lon="16.000993">
        <ele>82.8182</ele>
        <time>1970-01-01T01:00:00Z</time>
      </trkpt>
      <trkpt lat="58.99206" lon="16.00082">
        <ele>83</ele>
        <time>1970-01-01T01:00:00Z</time>
      </trkpt>
      <trkpt lat="58.992065" lon="16.000661">
        <ele>83.0909</ele>
        <time>1970-01-01T01:00:00Z</time>
      </trkpt>
      <trkpt lat="58.99205" lon="16.000482">
        <ele>83.1818</ele>
        <time>1970-01-01T01:00:00Z</time>
      </trkpt>
      <trkpt lat="58.992044" lon="16.000302">
        <ele>83.3636</ele>
        <time>1970-01-01T01:00:00Z</time>
      </trkpt>
      <trkpt lat="58.992034" lon="16.00012">
        <ele>83.5455</ele>
        <time>1970-01-01T01:00:00Z</time>
      </trkpt>
      <trkpt lat="58.992048" lon="15.99994">
        <ele>83.9091</ele>
        <time>1970-01-01T01:00:00Z</time>
      </trkpt>
      <trkpt lat="58.99206" lon="15.999757">
        <ele>84.1818</ele>
        <time>1970-01-01T01:00:00Z</time>
      </trkpt>
      <trkpt lat="58.992058" lon="15.999582">
        <ele>84.4545</ele>
        <time>1970-01-01T01:00:00Z</time>
      </trkpt>
      <trkpt lat="58.992055" lon="15.999398">
        <ele>84.7273</ele>
        <time>1970-01-01T01:00:00Z</time>
      </trkpt>
      <trkpt lat="58.992075" lon="15.99923">
        <ele>85</ele>
        <time>1970-01-01T01:00:00Z</time>
      </trkpt>
      <trkpt lat="58.992073" lon="15.999072">
        <ele>85.1818</ele>
        <time>1970-01-01T01:00:00Z</time>
      </trkpt>
      <trkpt lat="58.992063" lon="15.998889">
        <ele>85.1818</ele>
        <time>1970-01-01T01:00:00Z</time>
      </trkpt>
      <trkpt lat="58.992058" lon="15.998729">
        <ele>85.0909</ele>
        <time>1970-01-01T01:00:00Z</time>
      </trkpt>
      <trkpt lat="58.992046" lon="15.998542">
        <ele>85</ele>
        <time>1970-01-01T01:00:00Z</time>
      </trkpt>
      <trkpt lat="58.992041" lon="15.998362">
        <ele>84.6364</ele>
        <time>1970-01-01T01:00:00Z</time>
      </trkpt>
      <trkpt lat="58.992025" lon="15.998201">
        <ele>84.1818</ele>
        <time>1970-01-01T01:00:00Z</time>
      </trkpt>
      <trkpt lat="58.992012" lon="15.99804">
        <ele>83.4545</ele>
        <time>1970-01-01T01:00:00Z</time>
      </trkpt>
      <trkpt lat="58.991981" lon="15.997886">
        <ele>82.6364</ele>
        <time>1970-01-01T01:00:00Z</time>
      </trkpt>
      <trkpt lat="58.991968" lon="15.997726">
        <ele>81.7273</ele>
        <time>1970-01-01T01:00:00Z</time>
      </trkpt>
      <trkpt lat="58.991918" lon="15.997568">
        <ele>80.7273</ele>
        <time>1970-01-01T01:00:00Z</time>
      </trkpt>
      <trkpt lat="58.991877" lon="15.997401">
        <ele>79.6364</ele>
        <time>1970-01-01T01:00:00Z</time>
      </trkpt>
      <trkpt lat="58.991834" lon="15.997226">
        <ele>78.5455</ele>
        <time>1970-01-01T01:00:00Z</time>
      </trkpt>
      <trkpt lat="58.991788" lon="15.997076">
        <ele>77.4545</ele>
        <time>1970-01-01T01:00:00Z</time>
      </trkpt>
      <trkpt lat="58.99174" lon="15.996947">
        <ele>76.4545</ele>
        <time>1970-01-01T01:00:00Z</time>
      </trkpt>
      <trkpt lat="58.991689" lon="15.996804">
        <ele>75.4545</ele>
        <time>1970-01-01T01:00:00Z</time>
      </trkpt>
      <trkpt lat="58.991635" lon="15.996649">
        <ele>74.7273</ele>
        <time>1970-01-01T01:00:00Z</time>
      </trkpt>
      <trkpt lat="58.991575" lon="15.996522">
        <ele>74.0909</ele>
        <time>1970-01-01T01:00:00Z</time>
      </trkpt>
      <trkpt lat="58.991527" lon="15.996379">
        <ele>73.6364</ele>
        <time>1970-01-01T01:00:00Z</time>
      </trkpt>
      <trkpt lat="58.991509" lon="15.996209">
        <ele>73.1818</ele>
        <time>1970-01-01T01:00:00Z</time>
      </trkpt>
      <trkpt lat="58.991485" lon="15.996057">
        <ele>72.8182</ele>
        <time>1970-01-01T01:00:00Z</time>
      </trkpt>
      <trkpt lat="58.991486" lon="15.995897">
        <ele>72.5455</ele>
        <time>1970-01-01T01:00:00Z</time>
      </trkpt>
      <trkpt lat="58.991491" lon="15.995739">
        <ele>72.3636</ele>
        <time>1970-01-01T01:00:00Z</time>
      </trkpt>
      <trkpt lat="58.991483" lon="15.995571">
        <ele>72.2727</ele>
        <time>1970-01-01T01:00:00Z</time>
      </trkpt>
      <trkpt lat="58.991459" lon="15.99539">
        <ele>72.2727</ele>
        <time>1970-01-01T01:00:00Z</time>
      </trkpt>
      <trkpt lat="58.991462" lon="15.995224">
        <ele>72.2727</ele>
        <time>1970-01-01T01:00:00Z</time>
      </trkpt>
      <trkpt lat="58.991469" lon="15.995051">
        <ele>72.2727</ele>
        <time>1970-01-01T01:00:00Z</time>
      </trkpt>
      <trkpt lat="58.991477" lon="15.994894">
        <ele>72.0909</ele>
        <time>1970-01-01T01:00:00Z</time>
      </trkpt>
      <trkpt lat="58.991509" lon="15.994731">
        <ele>71.9091</ele>
        <time>1970-01-01T01:00:00Z</time>
      </trkpt>
      <trkpt lat="58.991563" lon="15.99458">
        <ele>71.7273</ele>
        <time>1970-01-01T01:00:00Z</time>
      </trkpt>
      <trkpt lat="58.991628" lon="15.994455">
        <ele>71.6364</ele>
        <time>1970-01-01T01:00:00Z</time>
      </trkpt>
      <trkpt lat="58.991717" lon="15.994433">
        <ele>71.4545</ele>
        <time>1970-01-01T01:00:00Z</time>
      </trkpt>
      <trkpt lat="58.991799" lon="15.994376">
        <ele>71.2727</ele>
        <time>1970-01-01T01:00:00Z</time>
      </trkpt>
      <trkpt lat="58.991886" lon="15.994373">
        <ele>71</ele>
        <time>1970-01-01T01:00:00Z</time>
      </trkpt>
      <trkpt lat="58.99198" lon="15.994413">
        <ele>70.7273</ele>
        <time>1970-01-01T01:00:00Z</time>
      </trkpt>
      <trkpt lat="58.992069" lon="15.994448">
        <ele>70.3636</ele>
        <time>1970-01-01T01:00:00Z</time>
      </trkpt>
      <trkpt lat="58.992156" lon="15.994473">
        <ele>70</ele>
        <time>1970-01-01T01:00:00Z</time>
      </trkpt>
      <trkpt lat="58.992233" lon="15.994531">
        <ele>69.5455</ele>
        <time>1970-01-01T01:00:00Z</time>
      </trkpt>
      <trkpt lat="58.992315" lon="15.994569">
        <ele>69.1818</ele>
        <time>1970-01-01T01:00:00Z</time>
      </trkpt>
      <trkpt lat="58.992407" lon="15.994572">
        <ele>68.8182</ele>
        <time>1970-01-01T01:00:00Z</time>
      </trkpt>
      <trkpt lat="58.992495" lon="15.9946">
        <ele>68.5455</ele>
        <time>1970-01-01T01:00:00Z</time>
      </trkpt>
      <trkpt lat="58.992578" lon="15.994554">
        <ele>68.2727</ele>
        <time>1970-01-01T01:00:00Z</time>
      </trkpt>
      <trkpt lat="58.992662" lon="15.994526">
        <ele>68.0909</ele>
        <time>1970-01-01T01:00:00Z</time>
      </trkpt>
      <trkpt lat="58.992751" lon="15.994525">
        <ele>68</ele>
        <time>1970-01-01T01:00:00Z</time>
      </trkpt>
      <trkpt lat="58.992836" lon="15.994471">
        <ele>68.0909</ele>
        <time>1970-01-01T01:00:00Z</time>
      </trkpt>
      <trkpt lat="58.992917" lon="15.994445">
        <ele>68.2727</ele>
        <time>1970-01-01T01:00:00Z</time>
      </trkpt>
      <trkpt lat="58.993" lon="15.994431">
        <ele>68.5455</ele>
        <time>1970-01-01T01:00:00Z</time>
      </trkpt>
      <trkpt lat="58.993082" lon="15.994376">
        <ele>68.9091</ele>
        <time>1970-01-01T01:00:00Z</time>
      </trkpt>
      <trkpt lat="58.993175" lon="15.994358">
        <ele>69.4545</ele>
        <time>1970-01-01T01:00:00Z</time>
      </trkpt>
      <trkpt lat="58.993263" lon="15.994316">
        <ele>70</ele>
        <time>1970-01-01T01:00:00Z</time>
      </trkpt>
      <trkpt lat="58.993345" lon="15.994307">
        <ele>70.6364</ele>
        <time>1970-01-01T01:00:00Z</time>
      </trkpt>
      <trkpt lat="58.993432" lon="15.994318">
        <ele>71.1818</ele>
        <time>1970-01-01T01:00:00Z</time>
      </trkpt>
      <trkpt lat="58.993513" lon="15.994397">
        <ele>71.7273</ele>
        <time>1970-01-01T01:00:00Z</time>
      </trkpt>
      <trkpt lat="58.993586" lon="15.994491">
        <ele>72.3636</ele>
        <time>1970-01-01T01:00:00Z</time>
      </trkpt>
      <trkpt lat="58.993637" lon="15.994636">
        <ele>72.9091</ele>
        <time>1970-01-01T01:00:00Z</time>
      </trkpt>
      <trkpt lat="58.993711" lon="15.994736">
        <ele>73.4545</ele>
        <time>1970-01-01T01:00:00Z</time>
      </trkpt>
      <trkpt lat="58.993778" lon="15.994835">
        <ele>74</ele>
        <time>1970-01-01T01:00:00Z</time>
      </trkpt>
      <trkpt lat="58.993856" lon="15.994922">
        <ele>74.5455</ele>
        <time>1970-01-01T01:00:00Z</time>
      </trkpt>
      <trkpt lat="58.993948" lon="15.994961">
        <ele>75.0909</ele>
        <time>1970-01-01T01:00:00Z</time>
      </trkpt>
      <trkpt lat="58.99403" lon="15.994975">
        <ele>75.6364</ele>
        <time>1970-01-01T01:00:00Z</time>
      </trkpt>
      <trkpt lat="58.994113" lon="15.994934">
        <ele>76.1818</ele>
        <time>1970-01-01T01:00:00Z</time>
      </trkpt>
      <trkpt lat="58.994187" lon="15.99487">
        <ele>76.6364</ele>
        <time>1970-01-01T01:00:00Z</time>
      </trkpt>
      <trkpt lat="58.994268" lon="15.994849">
        <ele>77.0909</ele>
        <time>1970-01-01T01:00:00Z</time>
      </trkpt>
      <trkpt lat="58.994355" lon="15.994832">
        <ele>77.5455</ele>
        <time>1970-01-01T01:00:00Z</time>
      </trkpt>
      <trkpt lat="58.994442" lon="15.994833">
        <ele>77.9091</ele>
        <time>1970-01-01T01:00:00Z</time>
      </trkpt>
      <trkpt lat="58.994522" lon="15.994914">
        <ele>78.1818</ele>
        <time>1970-01-01T01:00:00Z</time>
      </trkpt>
      <trkpt lat="58.994605" lon="15.994934">
        <ele>78.3636</ele>
        <time>1970-01-01T01:00:00Z</time>
      </trkpt>
      <trkpt lat="58.994685" lon="15.994985">
        <ele>78.4545</ele>
        <time>1970-01-01T01:00:00Z</time>
      </trkpt>
      <trkpt lat="58.994767" lon="15.995042">
        <ele>78.5455</ele>
        <time>1970-01-01T01:00:00Z</time>
      </trkpt>
      <trkpt lat="58.994837" lon="15.995133">
        <ele>78.4545</ele>
        <time>1970-01-01T01:00:00Z</time>
      </trkpt>
      <trkpt lat="58.994906" lon="15.995235">
        <ele>78.3636</ele>
        <time>1970-01-01T01:00:00Z</time>
      </trkpt>
      <trkpt lat="58.994951" lon="15.995396">
        <ele>78.2727</ele>
        <time>1970-01-01T01:00:00Z</time>
      </trkpt>
      <trkpt lat="58.995002" lon="15.995524">
        <ele>78.0909</ele>
        <time>1970-01-01T01:00:00Z</time>
      </trkpt>
      <trkpt lat="58.995039" lon="15.995672">
        <ele>77.9091</ele>
        <time>1970-01-01T01:00:00Z</time>
      </trkpt>
      <trkpt lat="58.995092" lon="15.99582">
        <ele>77.7273</ele>
        <time>1970-01-01T01:00:00Z</time>
      </trkpt>
      <trkpt lat="58.995137" lon="15.995979">
        <ele>77.5455</ele>
        <time>1970-01-01T01:00:00Z</time>
      </trkpt>
      <trkpt lat="58.995185" lon="15.996144">
        <ele>77.4545</ele>
        <time>1970-01-01T01:00:00Z</time>
      </trkpt>
      <trkpt lat="58.995245" lon="15.996282">
        <ele>77.3636</ele>
        <time>1970-01-01T01:00:00Z</time>
      </trkpt>
      <trkpt lat="58.995302" lon="15.996396">
        <ele>77.1818</ele>
        <time>1970-01-01T01:00:00Z</time>
      </trkpt>
      <trkpt lat="58.995359" lon="15.996508">
        <ele>77</ele>
        <time>1970-01-01T01:00:00Z</time>
      </trkpt>
      <trkpt lat="58.995436" lon="15.996574">
        <ele>76.8182</ele>
        <time>1970-01-01T01:00:00Z</time>
      </trkpt>
      <trkpt lat="58.995513" lon="15.996646">
        <ele>76.4545</ele>
        <time>1970-01-01T01:00:00Z</time>
      </trkpt>
      <trkpt lat="58.995592" lon="15.996703">
        <ele>76</ele>
        <time>1970-01-01T01:00:00Z</time>
      </trkpt>
      <trkpt lat="58.995667" lon="15.996775">
        <ele>75.6364</ele>
        <time>1970-01-01T01:00:00Z</time>
      </trkpt>
      <trkpt lat="58.995752" lon="15.996842">
        <ele>75.1818</ele>
        <time>1970-01-01T01:00:00Z</time>
      </trkpt>
      <trkpt lat="58.995837" lon="15.996908">
        <ele>74.7273</ele>
        <time>1970-01-01T01:00:00Z</time>
      </trkpt>
      <trkpt lat="58.995909" lon="15.996989">
        <ele>74.2727</ele>
        <time>1970-01-01T01:00:00Z</time>
      </trkpt>
      <trkpt lat="58.99599" lon="15.997061">
        <ele>73.8182</ele>
        <time>1970-01-01T01:00:00Z</time>
      </trkpt>
      <trkpt lat="58.996061" lon="15.997138">
        <ele>73.4545</ele>
        <time>1970-01-01T01:00:00Z</time>
      </trkpt>
      <trkpt lat="58.996123" lon="15.997242">
        <ele>73.1818</ele>
        <time>1970-01-01T01:00:00Z</time>
      </trkpt>
      <trkpt lat="58.996186" lon="15.997342">
        <ele>73</ele>
        <time>1970-01-01T01:00:00Z</time>
      </trkpt>
      <trkpt lat="58.99624" lon="15.99747">
        <ele>72.9091</ele>
        <time>1970-01-01T01:00:00Z</time>
      </trkpt>
      <trkpt lat="58.996293" lon="15.997611">
        <ele>72.9091</ele>
        <time>1970-01-01T01:00:00Z</time>
      </trkpt>
      <trkpt lat="58.996336" lon="15.997749">
        <ele>73</ele>
        <time>1970-01-01T01:00:00Z</time>
      </trkpt>
      <trkpt lat="58.996384" lon="15.997885">
        <ele>73.1818</ele>
        <time>1970-01-01T01:00:00Z</time>
      </trkpt>
      <trkpt lat="58.996443" lon="15.998014">
        <ele>73.4545</ele>
        <time>1970-01-01T01:00:00Z</time>
      </trkpt>
      <trkpt lat="58.996502" lon="15.998143">
        <ele>73.8182</ele>
        <time>1970-01-01T01:00:00Z</time>
      </trkpt>
      <trkpt lat="58.996568" lon="15.998248">
        <ele>74.2727</ele>
        <time>1970-01-01T01:00:00Z</time>
      </trkpt>
      <trkpt lat="58.996639" lon="15.998341">
        <ele>74.8182</ele>
        <time>1970-01-01T01:00:00Z</time>
      </trkpt>
      <trkpt lat="58.996714" lon="15.998423">
        <ele>75.3636</ele>
        <time>1970-01-01T01:00:00Z</time>
      </trkpt>
      <trkpt lat="58.996788" lon="15.998496">
        <ele>75.9091</ele>
        <time>1970-01-01T01:00:00Z</time>
      </trkpt>
      <trkpt lat="58.99686" lon="15.998596">
        <ele>76.4545</ele>
        <time>1970-01-01T01:00:00Z</time>
      </trkpt>
      <trkpt lat="58.996922" lon="15.99871">
        <ele>77</ele>
        <time>1970-01-01T01:00:00Z</time>
      </trkpt>
      <trkpt lat="58.996993" lon="15.998814">
        <ele>77.5455</ele>
        <time>1970-01-01T01:00:00Z</time>
      </trkpt>
      <trkpt lat="58.99704" lon="15.998948">
        <ele>78.0909</ele>
        <time>1970-01-01T01:00:00Z</time>
      </trkpt>
      <trkpt lat="58.99711" lon="15.999052">
        <ele>78.5455</ele>
        <time>1970-01-01T01:00:00Z</time>
      </trkpt>
      <trkpt lat="58.997181" lon="15.999138">
        <ele>79</ele>
        <time>1970-01-01T01:00:00Z</time>
      </trkpt>
      <trkpt lat="58.997256" lon="15.999236">
        <ele>79.3636</ele>
        <time>1970-01-01T01:00:00Z</time>
      </trkpt>
      <trkpt lat="58.997313" lon="15.999355">
        <ele>79.6364</ele>
        <time>1970-01-01T01:00:00Z</time>
      </trkpt>
      <trkpt lat="58.997377" lon="15.99945">
        <ele>79.8182</ele>
        <time>1970-01-01T01:00:00Z</time>
      </trkpt>
      <trkpt lat="58.997426" lon="15.999597">
        <ele>79.9091</ele>
        <time>1970-01-01T01:00:00Z</time>
      </trkpt>
      <trkpt lat="58.997479" lon="15.999718">
        <ele>79.9091</ele>
        <time>1970-01-01T01:00:00Z</time>
      </trkpt>
      <trkpt lat="58.997547" lon="15.999848">
        <ele>79.8182</ele>
        <time>1970-01-01T01:00:00Z</time>
      </trkpt>
      <trkpt lat="58.997616" lon="15.99995">
        <ele>79.6364</ele>
        <time>1970-01-01T01:00:00Z</time>
      </trkpt>
      <trkpt lat="58.997687" lon="16.000052">
        <ele>79.4545</ele>
        <time>1970-01-01T01:00:00Z</time>
      </trkpt>
      <trkpt lat="58.997763" lon="16.000133">
        <ele>79.1818</ele>
        <time>1970-01-01T01:00:00Z</time>
      </trkpt>
      <trkpt lat="58.997842" lon="16.000208">
        <ele>78.8182</ele>
        <time>1970-01-01T01:00:00Z</time>
      </trkpt>
      <trkpt lat="58.997906" lon="16.000308">
        <ele>78.4545</ele>
        <time>1970-01-01T01:00:00Z</time>
      </trkpt>
      <trkpt lat="58.997977" lon="16.000388">
        <ele>78</ele>
        <time>1970-01-01T01:00:00Z</time>
      </trkpt>
      <trkpt lat="58.998057" lon="16.000475">
        <ele>77.5455</ele>
        <time>1970-01-01T01:00:00Z</time>
      </trkpt>
      <trkpt lat="58.998125" lon="16.000575">
        <ele>77.0909</ele>
        <time>1970-01-01T01:00:00Z</time>
      </trkpt>
      <trkpt lat="58.998199" lon="16.000671">
        <ele>76.6364</ele>
        <time>1970-01-01T01:00:00Z</time>
      </trkpt>
      <trkpt lat="58.998278" lon="16.00072">
        <ele>76.2727</ele>
        <time>1970-01-01T01:00:00Z</time>
      </trkpt>
      <trkpt lat="58.99837" lon="16.000757">
        <ele>75.9091</ele>
        <time>1970-01-01T01:00:00Z</time>
      </trkpt>
      <trkpt lat="58.998454" lon="16.000775">
        <ele>75.6364</ele>
        <time>1970-01-01T01:00:00Z</time>
      </trkpt>
      <trkpt lat="58.998543" lon="16.000833">
        <ele>75.3636</ele>
        <time>1970-01-01T01:00:00Z</time>
      </trkpt>
      <trkpt lat="58.998627" lon="16.000899">
        <ele>75.1818</ele>
        <time>1970-01-01T01:00:00Z</time>
      </trkpt>
      <trkpt lat="58.998715" lon="16.000973">
        <ele>75.0909</ele>
        <time>1970-01-01T01:00:00Z</time>
      </trkpt>
      <trkpt lat="58.998777" lon="16.001095">
        <ele>74.9091</ele>
        <time>1970-01-01T01:00:00Z</time>
      </trkpt>
      <trkpt lat="58.998859" lon="16.001188">
        <ele>74.8182</ele>
        <time>1970-01-01T01:00:00Z</time>
      </trkpt>
      <trkpt lat="58.998935" lon="16.001274">
        <ele>74.7273</ele>
        <time>1970-01-01T01:00:00Z</time>
      </trkpt>
      <trkpt lat="58.999" lon="16.001371">
        <ele>74.6364</ele>
        <time>1970-01-01T01:00:00Z</time>
      </trkpt>
      <trkpt lat="58.999068" lon="16.001496">
        <ele>74.5455</ele>
        <time>1970-01-01T01:00:00Z</time>
      </trkpt>
      <trkpt lat="58.999136" lon="16.001607">
        <ele>74.3636</ele>
        <time>1970-01-01T01:00:00Z</time>
      </trkpt>
      <trkpt lat="58.999201" lon="16.001724">
        <ele>74.1818</ele>
        <time>1970-01-01T01:00:00Z</time>
      </trkpt>
      <trkpt lat="58.999271" lon="16.001806">
        <ele>74</ele>
        <time>1970-01-01T01:00:00Z</time>
      </trkpt>
      <trkpt lat="58.99933" lon="16.001929">
        <ele>73.8182</ele>
        <time>1970-01-01T01:00:00Z</time>
      </trkpt>
      <trkpt lat="58.999374" lon="16.002065">
        <ele>73.6364</ele>
        <time>1970-01-01T01:00:00Z</time>
      </trkpt>
      <trkpt lat="58.999417" lon="16.002226">
        <ele>73.3636</ele>
        <time>1970-01-01T01:00:00Z</time>
      </trkpt>
      <trkpt lat="58.999461" lon="16.002375">
        <ele>73.1818</ele>
        <time>1970-01-01T01:00:00Z</time>
      </trkpt>
      <trkpt lat="58.999503" lon="16.002538">
        <ele>73</ele>
        <time>1970-01-01T01:00:00Z</time>
      </trkpt>
      <trkpt lat="58.999558" lon="16.002674">
        <ele>72.8182</ele>
        <time>1970-01-01T01:00:00Z</time>
      </trkpt>
      <trkpt lat="58.999582" lon="16.002838">
        <ele>72.5455</ele>
        <time>1970-01-01T01:00:00Z</time>
      </trkpt>
      <trkpt lat="58.999618" lon="16.002995">
        <ele>72.2727</ele>
        <time>1970-01-01T01:00:00Z</time>
      </trkpt>
      <trkpt lat="58.999659" lon="16.003154">
        <ele>72.0909</ele>
        <time>1970-01-01T01:00:00Z</time>
      </trkpt>
      <trkpt lat="58.999691" lon="16.003316">
        <ele>71.9091</ele>
        <time>1970-01-01T01:00:00Z</time>
      </trkpt>
      <trkpt lat="58.999751" lon="16.003444">
        <ele>71.7273</ele>
        <time>1970-01-01T01:00:00Z</time>
      </trkpt>
      <trkpt lat="58.999801" lon="16.003591">
        <ele>71.6364</ele>
        <time>1970-01-01T01:00:00Z</time>
      </trkpt>
      <trkpt lat="58.999827" lon="16.00375">
        <ele>71.5455</ele>
        <time>1970-01-01T01:00:00Z</time>
      </trkpt>
      <trkpt lat="58.999823" lon="16.003918">
        <ele>71.5455</ele>
        <time>1970-01-01T01:00:00Z</time>
      </trkpt>
      <trkpt lat="58.999799" lon="16.004083">
        <ele>71.4545</ele>
        <time>1970-01-01T01:00:00Z</time>
      </trkpt>
      <trkpt lat="58.999806" lon="16.004241">
        <ele>71.3636</ele>
        <time>1970-01-01T01:00:00Z</time>
      </trkpt>
      <trkpt lat="58.999766" lon="16.004401">
        <ele>71.2727</ele>
        <time>1970-01-01T01:00:00Z</time>
      </trkpt>
      <trkpt lat="58.999715" lon="16.004557">
        <ele>71.2727</ele>
        <time>1970-01-01T01:00:00Z</time>
      </trkpt>
      <trkpt lat="58.999675" lon="16.004701">
        <ele>71.1818</ele>
        <time>1970-01-01T01:00:00Z</time>
      </trkpt>
      <trkpt lat="58.999627" lon="16.004845">
        <ele>71.0909</ele>
        <time>1970-01-01T01:00:00Z</time>
      </trkpt>
      <trkpt lat="58.999603" lon="16.005005">
        <ele>71</ele>
        <time>1970-01-01T01:00:00Z</time>
      </trkpt>
      <trkpt lat="58.999566" lon="16.005167">
        <ele>70.8182</ele>
        <time>1970-01-01T01:00:00Z</time>
      </trkpt>
      <trkpt lat="58.99953" lon="16.005317">
        <ele>70.3636</ele>
        <time>1970-01-01T01:00:00Z</time>
      </trkpt>
      <trkpt lat="58.99952" lon="16.005486">
        <ele>69.8182</ele>
        <time>1970-01-01T01:00:00Z</time>
      </trkpt>
      <trkpt lat="58.999491" lon="16.005642">
        <ele>69.2727</ele>
        <time>1970-01-01T01:00:00Z</time>
      </trkpt>
      <trkpt lat="58.99952" lon="16.005794">
        <ele>68.7273</ele>
        <time>1970-01-01T01:00:00Z</time>
      </trkpt>
      <trkpt lat="58.999583" lon="16.005937">
        <ele>68.1818</ele>
        <time>1970-01-01T01:00:00Z</time>
      </trkpt>
      <trkpt lat="58.999647" lon="16.006059">
        <ele>67.6364</ele>
        <time>1970-01-01T01:00:00Z</time>
      </trkpt>
      <trkpt lat="58.999716" lon="16.006152">
        <ele>67</ele>
        <time>1970-01-01T01:00:00Z</time>
      </trkpt>
      <trkpt lat="58.999775" lon="16.006265">
        <ele>66.4545</ele>
        <time>1970-01-01T01:00:00Z</time>
      </trkpt>
      <trkpt lat="58.999853" lon="16.006346">
        <ele>66.1</ele>
        <time>1970-01-01T01:00:00Z</time>
      </trkpt>
      <trkpt lat="58.99991" lon="16.006461">
        <ele>65.6667</ele>
        <time>1970-01-01T01:00:00Z</time>
      </trkpt>
      <trkpt lat="58.99999" lon="16.006533">
        <ele>65.25</ele>
        <time>1970-01-01T01:00:00Z</time>
      </trkpt>
      <trkpt lat="59.000073" lon="16.006486">
        <ele>64.8333</ele>
        <time>1970-01-01T01:00:00Z</time>
      </trkpt>
    </trkseg>
  </trk>
</gpx>